GEFSGL_500_meanwind_054.txt.gz
Wind_Speed
40 42 44 45 47 48 50 51 52 53 54 55 56 58 59 59 60 60 60 60 59 59 59 59 59 59 59 60 60 61 61 61 61 60 61 62 63 63 64 63 63 61 60
42 44 45 47 48 50 51 53 54 55 57 58 59 60 61 61 61 60 61 61 61 60 60 59 59 58 58 58 57 58 58 58 58 57 58 60 60 60 59 57 57 56 54
43 45 47 48 50 51 53 55 56 58 59 60 60 60 61 61 61 61 62 61 61 60 59 58 57 56 55 55 55 55 55 55 56 56 56 56 54 53 52 52 50 49 48
46 48 49 50 51 53 55 56 57 59 60 60 60 61 61 61 61 61 60 59 58 57 56 55 54 53 52 52 52 52 53 53 53 53 51 49 48 47 46 46 44 44 43
49 50 51 52 54 55 56 57 58 59 59 60 60 60 60 60 59 58 58 57 55 54 53 52 51 50 49 49 49 49 50 50 49 47 45 43 41 41 40 40 38 37 36
48 49 50 52 54 55 56 57 58 58 59 59 58 58 58 57 57 56 54 53 52 51 50 49 48 47 47 47 47 47 46 45 43 40 37 37 36 35 34 33 33 32 31
48 50 50 52 53 53 54 55 56 56 56 56 56 56 55 54 53 52 51 50 50 49 47 47 46 46 45 44 43 42 40 38 35 33 32 31 29 28 28 29 30 30 30
49 50 51 51 52 53 53 54 54 54 54 54 53 53 52 51 51 50 49 48 46 46 45 44 43 42 41 39 38 35 33 31 29 28 26 25 24 25 27 28 28 29 29
48 49 49 50 51 51 52 51 51 51 51 51 51 50 49 49 48 47 45 44 43 42 41 39 38 37 35 32 29 27 25 25 24 22 20 21 22 24 25 26 27 27 27
46 47 48 48 48 48 48 49 49 49 49 48 48 47 46 45 43 42 40 39 37 36 34 32 30 28 26 23 21 19 19 18 18 18 18 20 21 23 24 25 25 25 25
44 45 45 45 45 46 46 47 47 46 45 44 43 42 41 39 37 36 35 33 30 28 25 23 20 18 16 15 14 13 13 14 14 16 17 18 20 22 24 24 25 25 24
41 42 43 43 44 45 44 44 42 41 40 38 37 35 34 32 30 29 27 24 22 19 16 13 11 10 9 9 9 9 10 11 13 14 16 17 19 21 22 23 23 23 23
39 40 41 42 42 41 40 38 35 34 32 30 29 27 26 24 22 19 17 15 13 10 8 6 5 4 4 5 6 8 9 11 12 14 15 17 18 20 21 21 22 22 22
37 38 37 37 36 34 31 29 27 26 24 23 21 20 19 16 14 11 9 7 6 4 2 2 2 3 4 4 6 8 10 11 12 14 15 17 18 20 20 21 21 21 21
33 33 33 31 29 26 24 22 20 19 18 17 16 14 12 10 8 6 4 4 3 4 4 4 4 5 6 7 8 10 11 12 13 15 16 17 19 19 20 20 21 21 21
30 30 28 25 22 19 17 16 16 15 14 13 12 10 9 8 7 6 6 6 6 6 7 7 8 9 9 10 10 11 11 13 14 15 17 18 19 19 19 20 20 21 21
26 24 22 20 18 15 13 12 12 12 12 11 11 10 9 8 8 8 8 8 8 9 9 10 11 11 12 12 12 12 13 14 15 16 18 19 19 20 20 20 20 21 21
22 20 18 17 16 14 13 12 11 11 10 11 11 10 10 10 10 10 10 10 10 11 12 12 13 13 13 14 14 14 14 15 15 17 18 19 20 20 20 20 20 21 21
18 17 17 16 15 13 12 11 11 11 11 11 11 11 11 11 11 11 11 11 12 13 13 13 14 14 14 14 14 15 15 16 16 17 18 19 19 20 20 20 20 20 21
16 16 15 15 14 13 12 11 11 12 11 11 11 11 11 11 11 12 12 13 13 14 14 14 14 15 14 14 15 15 15 16 17 18 19 19 20 20 21 21 21 20 20
15 14 14 13 13 13 12 12 11 12 12 12 12 12 12 12 12 12 13 13 13 13 14 14 14 14 13 13 14 14 15 15 16 17 19 19 20 20 20 20 20 20 20
14 13 13 12 12 12 11 11 10 11 11 11 11 11 12 12 12 12 12 12 12 12 12 12 13 13 12 12 13 13 14 15 16 17 19 20 20 21 20 20 20 20 19
13 13 12 12 11 11 10 9 9 10 10 10 11 11 11 11 11 11 11 11 11 11 11 11 11 11 11 11 12 13 13 14 15 17 18 19 20 21 21 21 20 20 20
13 12 12 11 10 10 9 9 9 9 9 9 10 10 10 10 10 10 10 10 10 9 10 10 10 10 10 11 11 12 13 14 15 16 18 18 19 20 21 21 21 21 21
13 13 12 11 10 10 9 8 8 8 9 9 9 9 9 9 9 9 9 9 9 9 9 9 9 10 10 11 11 12 13 14 15 16 17 18 18 19 21 21 21 21 21
14 14 13 12 11 10 9 8 7 7 8 8 8 8 8 8 8 8 8 8 8 8 8 9 9 9 10 11 12 13 13 14 15 16 17 17 18 20 21 21 22 22 22

GEFSGL_500_meanwind_060.txt.gz
Wind_Speed
40 40 41 43 44 45 46 48 49 51 52 53 55 56 57 58 59 60 61 62 62 62 62 62 63 63 64 64 64 64 63 63 62 61 61 62 62 61 62 62 63 63 62
40 41 42 43 44 46 48 50 52 53 55 56 58 60 61 61 62 62 63 63 63 64 64 65 65 64 64 63 63 62 61 60 59 58 58 58 59 59 59 59 59 58 57
40 41 42 44 46 48 50 52 54 56 58 59 60 61 62 63 64 64 64 64 65 65 65 64 64 64 63 61 60 59 59 58 57 56 55 56 56 56 55 55 53 51 49
41 43 45 47 49 50 53 54 55 57 59 60 61 62 63 64 64 64 64 64 64 64 64 63 63 61 60 59 58 57 56 55 54 54 53 52 52 52 50 48 46 45 44
43 45 47 48 50 52 53 54 56 57 58 59 60 61 62 63 63 63 63 63 62 62 62 61 60 59 57 56 55 54 53 52 51 50 49 48 47 45 43 41 39 36 37
43 45 46 48 49 51 51 53 55 56 57 58 59 59 60 61 61 61 60 60 59 59 58 57 55 54 52 51 50 50 49 47 46 44 43 41 38 37 35 33 32 31 31
43 45 46 48 49 50 51 52 53 54 55 56 56 57 58 58 57 57 56 56 55 54 52 51 49 48 47 46 45 44 43 41 39 36 34 32 31 29 27 27 28 29 29
42 43 44 46 48 49 49 50 51 52 52 53 54 54 55 54 54 53 52 51 50 49 47 45 43 42 40 39 38 37 35 33 30 28 25 24 23 23 23 23 24 25 27
40 41 42 43 44 45 46 48 49 50 51 51 51 51 51 51 50 49 47 45 43 41 39 36 35 33 32 30 28 27 26 24 21 19 18 18 18 19 20 21 22 23 24
38 39 39 41 42 43 45 46 48 48 48 48 47 45 44 43 43 41 39 37 34 32 29 27 26 24 23 21 19 18 17 16 15 15 15 15 16 17 19 20 21 21 22
35 36 37 38 40 41 43 43 43 42 41 39 38 37 35 34 33 31 28 25 23 21 20 18 17 15 14 12 12 11 11 11 11 12 13 14 16 17 18 19 19 20 21
32 33 34 35 36 38 38 37 36 34 32 31 30 28 27 25 22 19 17 15 14 13 12 10 8 7 7 7 7 7 7 8 9 11 12 13 15 16 17 17 19 20 20
29 30 31 32 33 33 32 30 29 28 26 25 23 21 19 17 15 12 10 9 7 7 6 5 4 4 5 5 6 6 7 8 10 11 12 13 15 16 16 18 19 20 21
26 27 28 28 29 28 27 25 24 23 22 20 19 17 15 13 10 8 7 6 5 5 5 5 5 6 6 7 7 8 9 10 11 12 13 14 15 16 17 18 19 21 21
23 24 24 24 24 23 23 22 20 19 18 17 16 14 12 10 8 7 6 6 6 7 7 8 8 8 8 9 9 10 11 12 13 14 15 16 17 17 18 19 20 21 21
20 20 20 20 19 20 19 18 17 16 15 14 13 12 11 9 8 8 8 8 9 9 10 10 10 10 10 11 11 12 13 13 14 15 16 18 18 19 19 20 20 21 21
17 17 17 17 17 16 16 16 15 15 14 13 12 11 10 10 9 9 9 10 10 10 11 11 11 11 12 12 13 13 14 15 16 17 18 19 20 21 21 21 21 21 21
15 15 14 15 15 14 14 14 14 13 13 12 11 11 10 10 10 10 10 11 11 11 11 12 12 12 12 13 13 14 15 16 18 19 19 20 21 22 22 22 22 22 21
14 13 13 13 13 13 13 13 13 12 12 11 11 11 11 11 11 11 11 11 11 11 12 12 12 12 12 13 13 14 16 17 19 20 21 22 23 23 23 22 22 22 21
13 12 12 12 11 11 11 11 11 10 10 11 11 11 11 11 11 11 11 11 11 11 11 11 11 12 12 13 14 15 16 18 19 21 22 23 23 23 23 23 22 22 21
13 12 11 10 10 9 9 9 9 9 10 10 10 10 11 11 11 11 11 11 11 11 11 11 11 12 12 13 14 15 16 17 19 21 22 23 23 24 24 24 22 22 21
12 11 10 9 9 8 8 9 9 9 9 9 9 9 10 10 10 10 10 10 10 10 10 11 11 11 12 13 14 15 16 18 19 20 21 22 23 24 24 24 23 22 21
12 11 9 8 8 7 7 7 8 8 8 8 8 8 8 9 9 9 9 9 9 9 10 10 10 11 12 13 14 15 16 17 18 20 20 22 23 24 24 24 23 22 22
12 11 10 9 8 7 7 6 6 6 6 7 7 7 7 8 8 8 8 8 8 8 9 9 10 11 12 13 14 14 15 16 18 19 20 21 22 22 23 23 23 23 22
13 12 11 10 9 7 6 6 5 5 5 6 6 6 6 7 7 7 7 7 8 8 8 9 10 11 12 13 13 14 15 16 17 18 20 20 21 22 22 22 22 22 22
15 14 12 11 9 8 6 6 6 5 5 6 6 6 6 6 6 7 7 7 7 8 8 9 10 11 12 13 14 14 15 16 17 18 19 20 21 21 21 21 21 21 21

GEFSGL_500_meanwind_066.txt.gz
Wind_Speed
41 41 42 42 43 44 44 45 45 46 47 48 50 51 52 54 55 56 58 58 59 61 62 63 64 65 66 66 66 66 67 66 66 66 65 65 64 64 63 62 62 61 61
41 40 40 40 41 42 43 44 46 48 49 50 52 53 54 56 57 58 60 61 62 63 64 65 66 66 66 66 66 65 65 65 64 62 61 60 60 60 59 58 58 57 57
38 39 39 40 41 43 44 46 47 49 50 52 53 55 56 58 59 60 62 63 63 64 65 65 65 65 65 64 63 62 61 60 59 57 55 55 55 55 54 53 53 52 50
36 37 38 39 42 43 44 46 48 50 51 53 55 56 58 59 60 61 63 64 64 65 65 65 65 63 62 60 58 56 55 53 52 51 50 49 49 48 47 46 44 43 42
35 37 38 40 41 43 45 47 49 50 52 54 55 57 58 60 61 62 63 64 64 64 63 62 61 58 56 53 51 49 47 46 46 45 44 42 41 40 39 38 36 36 36
35 36 38 40 41 43 45 47 49 50 52 54 55 57 58 60 61 62 63 63 62 60 58 56 53 50 48 46 44 42 41 39 39 38 37 35 33 33 32 31 31 30 30
35 36 37 39 41 43 44 46 47 49 50 52 53 55 57 58 59 59 58 57 54 51 49 46 43 41 39 38 36 35 34 33 31 30 29 28 27 27 27 27 26 26 26
33 34 36 38 40 41 42 44 45 46 48 50 51 52 52 52 52 50 48 45 42 40 37 35 34 32 30 29 28 27 26 25 24 23 22 22 22 22 22 22 22 22 23
32 33 35 36 38 39 40 41 42 44 45 47 48 47 47 45 43 41 38 35 33 30 28 27 25 23 22 21 20 20 19 19 18 18 17 17 18 18 19 19 19 20 21
32 33 34 35 36 37 37 38 39 41 42 42 42 41 39 38 37 34 31 29 26 23 21 19 17 16 15 14 14 14 14 15 15 15 15 15 15 16 16 17 18 20 21
30 31 32 32 33 33 34 35 36 37 37 37 36 34 33 32 30 28 25 22 19 17 15 13 12 11 11 11 12 12 12 12 12 13 14 14 15 15 17 18 19 20 21
28 28 28 29 29 29 30 31 32 32 31 31 30 29 28 26 24 21 19 16 14 12 11 11 10 10 10 11 11 11 12 12 12 13 14 15 16 17 18 19 19 20 21
26 26 26 26 26 26 27 27 27 27 27 26 25 24 23 22 20 17 14 12 11 11 11 10 10 10 11 11 12 12 13 14 15 15 16 17 17 18 19 19 20 20 20
23 23 23 23 22 22 23 23 23 23 23 22 21 20 19 18 16 14 12 11 11 10 11 11 11 11 12 13 14 14 15 16 16 17 17 18 19 19 20 20 20 20 19
20 20 20 19 19 20 20 20 19 19 19 19 18 17 16 14 13 12 11 11 11 11 11 12 12 13 14 14 15 16 17 17 18 18 19 19 20 20 20 20 20 19 19
18 18 18 17 17 17 17 17 17 17 17 16 15 14 13 12 11 11 11 11 12 12 12 12 13 13 14 15 16 17 18 18 19 19 20 20 21 21 21 20 20 20 19
17 17 17 16 15 15 15 15 15 15 15 14 13 12 11 11 10 10 11 11 12 12 13 13 13 13 14 15 17 18 18 19 20 20 21 21 22 22 21 21 20 20 19
15 15 14 13 13 12 12 12 12 12 12 11 11 10 10 10 10 11 11 12 12 12 13 13 13 14 14 15 17 18 19 20 21 21 21 22 22 21 20 20 20 20 19
13 13 12 11 11 10 10 10 10 10 10 9 9 9 10 10 11 11 11 12 12 12 13 13 14 14 15 16 17 18 19 20 20 20 21 22 22 22 21 20 20 20 19
12 12 11 10 9 9 8 8 9 9 9 8 8 8 9 10 10 10 10 11 11 12 12 13 14 14 15 16 17 18 19 19 20 20 21 21 21 21 21 20 20 20 19
12 11 10 10 9 8 7 7 8 8 7 7 7 8 8 9 9 9 10 10 11 11 12 13 14 14 15 16 17 18 18 19 20 20 21 21 21 21 21 20 20 20 19
11 10 10 9 8 7 7 7 7 6 6 6 6 7 7 8 8 8 9 10 10 11 12 13 14 14 15 16 17 18 19 19 20 20 21 20 20 20 21 20 20 20 19
11 11 10 9 8 7 7 6 6 6 5 5 6 6 6 7 7 8 9 10 10 11 12 13 14 14 15 16 17 18 19 19 20 20 20 20 20 20 20 20 20 20 19
12 11 10 9 8 8 7 6 6 5 5 5 5 5 6 6 7 7 9 9 10 11 12 13 13 14 15 16 17 18 19 19 20 20 20 20 20 19 19 19 19 19 19
14 12 11 10 9 8 7 7 6 6 5 5 5 5 6 6 7 7 8 9 10 11 12 12 13 14 15 16 17 18 18 19 20 20 20 20 20 20 20 19 19 19 19
15 14 12 11 10 9 8 7 7 6 6 6 6 6 6 7 7 8 8 9 10 11 11 12 13 14 15 16 16 17 18 19 19 20 20 20 20 20 20 20 19 19 18

GEFSGL_500_meanwind_072.txt.gz
Wind_Speed
39 39 39 40 41 42 43 44 45 45 46 47 46 46 47 47 48 49 50 52 53 53 55 56 58 59 61 62 62 63 63 63 64 64 64 64 63 62 62 61 60 60 59
39 39 39 40 41 42 43 43 44 45 45 45 46 46 46 48 49 50 52 52 54 55 56 57 58 59 59 59 59 59 58 58 57 57 57 56 55 55 54 53 52 51 51
38 38 39 40 41 42 43 44 44 44 44 44 44 45 47 48 49 51 52 53 54 55 56 56 56 56 56 56 55 54 53 52 51 51 50 50 49 48 46 46 45 45 44
37 37 39 40 40 41 42 42 42 42 43 43 44 45 46 47 49 50 52 53 53 54 54 54 54 53 52 51 49 48 47 46 45 44 44 43 42 41 41 40 39 38 38
36 37 38 39 39 39 39 39 40 41 42 42 43 44 45 46 48 49 49 50 51 51 51 50 48 46 45 43 42 41 40 39 38 37 37 37 36 36 35 34 34 33 33
35 36 36 36 36 36 37 38 39 40 40 41 42 43 44 45 46 46 47 47 47 46 44 42 40 39 38 36 34 33 32 32 32 31 31 30 30 30 29 29 29 28 28
31 32 33 33 33 34 34 35 37 37 38 39 40 41 42 42 43 43 42 41 40 39 37 36 34 33 31 29 27 26 25 24 24 24 24 24 24 24 24 25 25 25 25
29 30 30 30 31 32 33 34 35 35 36 37 37 38 39 39 39 38 37 36 35 33 32 31 29 27 25 23 22 21 20 19 18 19 19 19 20 20 21 21 22 22 22
28 28 29 30 31 32 32 32 32 32 33 34 35 35 35 35 34 34 33 32 30 28 27 25 22 21 19 17 16 15 15 15 15 16 16 16 17 17 18 19 19 19 20
27 27 28 29 29 29 29 29 29 29 30 31 31 31 31 31 30 29 28 26 24 22 20 18 17 16 15 14 13 13 14 15 15 15 15 16 16 17 17 17 17 18 18
26 26 27 27 27 26 26 26 26 27 27 27 27 27 27 26 24 23 22 20 19 17 16 14 14 13 13 12 13 14 14 15 15 16 16 16 17 17 17 17 18 18 18
24 24 24 24 24 24 24 24 23 23 23 23 23 22 21 20 19 18 17 16 14 13 12 12 12 12 13 13 14 15 15 16 16 16 17 17 17 17 18 18 18 18 17
22 22 22 22 21 21 21 21 20 20 20 20 19 18 17 17 16 15 14 13 11 11 11 11 11 12 13 14 15 15 16 17 17 17 17 17 17 18 18 18 18 17 17
20 20 20 20 19 19 19 18 18 17 16 16 15 15 14 13 13 12 11 10 10 10 10 11 11 12 13 14 15 16 16 17 17 17 17 17 17 17 18 18 17 17 17
18 17 17 17 17 17 16 15 15 14 14 13 13 12 11 10 10 9 9 8 9 9 10 11 11 12 13 14 15 16 16 17 17 16 16 17 17 17 17 17 17 16 16
15 15 15 15 15 14 14 13 12 12 11 11 10 9 9 8 8 7 7 8 8 9 10 10 11 12 13 14 15 16 16 16 16 16 16 16 17 16 16 16 16 16 15
14 13 13 13 13 12 11 10 9 9 9 9 8 7 7 6 6 5 6 7 8 9 9 10 11 12 13 14 15 16 16 16 16 16 16 16 16 16 15 15 15 15 15
12 12 12 11 10 9 9 8 8 7 7 6 6 5 5 5 4 5 6 6 7 9 10 11 11 12 13 14 14 15 16 16 16 16 16 16 16 15 15 14 14 14 14
11 11 10 9 8 7 6 6 6 5 5 5 4 4 3 4 4 4 5 6 7 9 10 11 11 12 13 13 14 15 15 15 16 15 16 16 16 15 14 14 14 14 14
10 9 9 8 6 6 5 5 4 4 4 3 3 3 3 3 4 5 6 7 8 9 10 10 11 12 12 13 14 15 15 16 16 15 15 15 15 15 14 14 13 13 14
9 8 7 6 5 5 4 4 4 3 3 3 2 2 3 3 4 5 6 7 8 9 9 10 11 11 12 13 14 15 15 16 16 15 15 15 15 14 13 13 13 13 13
9 8 7 6 6 5 4 4 4 3 3 2 2 2 3 3 4 5 6 7 8 8 9 10 11 12 12 13 14 15 16 16 16 16 15 15 14 14 14 13 13 13 14
9 8 7 6 6 5 4 4 3 3 2 2 2 2 2 3 4 5 6 7 7 8 9 10 11 12 13 14 14 15 16 16 16 16 15 15 14 14 13 13 13 13 14
10 9 8 8 7 6 4 4 3 3 2 2 2 2 2 3 4 5 5 6 7 8 9 10 11 12 13 14 14 15 15 16 16 16 15 15 14 14 13 13 13 13 14
12 11 10 9 8 7 6 5 4 4 3 3 3 3 3 3 4 5 6 6 7 8 9 10 11 12 13 14 14 15 15 15 16 15 15 15 14 13 13 13 13 14 14
13 13 12 11 10 9 8 6 5 5 4 4 4 4 4 4 5 5 6 6 7 8 9 10 11 12 13 14 14 15 15 15 16 15 15 15 15 14 14 14 14 14 14

GEFSGL_500_meanwind_078.txt.gz
Wind_Speed
36 36 37 39 40 39 39 40 40 39 40 41 43 44 45 45 45 46 45 45 46 47 47 48 49 50 51 51 51 52 53 54 54 54 54 54 54 54 55 55 55 55 56
37 38 39 40 40 39 39 40 40 41 42 43 44 44 45 45 45 45 45 46 47 46 47 48 48 49 50 50 50 51 50 50 49 48 48 48 48 48 48 49 50 50 50
38 38 39 39 39 39 40 41 41 42 44 45 45 45 45 45 45 44 45 45 46 46 46 47 48 48 48 48 48 47 45 44 44 43 43 43 43 43 42 43 43 44 44
38 38 38 39 40 40 40 42 43 43 44 45 44 43 43 43 43 43 43 44 44 45 45 45 45 45 45 44 43 42 41 40 40 40 40 39 39 38 38 37 37 38 37
37 37 38 38 39 40 41 41 42 42 41 41 41 40 40 40 41 42 42 43 43 43 43 42 42 41 41 40 39 38 38 37 37 36 36 35 34 33 33 33 32 32 31
36 36 37 37 38 38 38 38 37 37 37 37 37 38 38 38 39 40 40 40 40 39 39 38 38 37 36 35 34 34 33 32 31 31 30 29 28 27 27 27 27 26 26
34 34 34 34 34 34 34 34 33 34 34 35 35 36 36 37 37 37 36 36 35 35 35 34 33 32 30 29 29 27 26 25 25 24 24 23 24 24 24 24 24 24 23
31 31 31 31 31 31 30 30 31 31 32 32 33 33 33 33 33 33 32 32 31 30 29 28 27 26 25 25 23 22 21 22 22 21 21 21 22 22 22 22 22 22 22
27 27 27 27 28 28 28 28 29 29 29 29 30 31 31 30 30 29 28 27 26 25 24 23 22 21 21 20 19 19 20 20 20 19 20 21 21 21 22 22 21 21 20
24 25 25 26 26 26 27 27 27 28 28 28 28 28 27 26 26 25 23 22 21 20 19 19 18 18 18 18 18 18 18 18 18 19 19 20 20 20 21 21 21 20 20
23 23 24 24 25 25 25 26 26 26 26 25 25 24 23 23 22 20 19 18 17 16 16 16 16 16 16 16 17 17 17 17 18 18 19 19 19 20 20 20 21 20 21
21 21 22 22 23 23 23 23 22 22 23 22 22 21 20 19 18 16 15 15 14 14 14 14 14 14 15 16 16 17 17 17 17 17 18 18 19 19 19 20 20 21 21
19 20 20 20 20 20 20 20 20 20 20 19 19 18 17 15 14 13 13 12 12 12 12 12 13 14 15 15 16 16 17 17 17 17 17 18 18 18 18 19 20 20 20
18 18 17 17 17 17 18 18 18 18 17 16 15 14 13 12 11 10 10 10 10 11 11 12 13 14 14 15 16 16 17 17 16 16 16 17 17 18 18 18 18 18 18
15 15 16 15 15 16 16 16 15 15 14 13 12 11 10 10 9 9 9 9 10 10 11 12 14 15 15 16 15 15 16 16 16 15 15 15 16 17 17 16 16 16 16
15 14 14 14 14 14 13 13 12 12 11 11 10 9 9 8 8 8 8 8 9 10 11 12 13 14 15 15 15 15 16 16 16 15 15 15 15 15 16 15 15 15 15
13 13 13 12 12 12 12 11 10 10 10 9 9 8 8 7 7 7 7 8 9 10 11 13 13 14 14 14 15 15 15 15 15 15 15 14 14 14 14 14 14 14 14
12 12 12 11 11 10 10 9 8 8 8 8 8 7 7 6 6 7 7 9 10 11 12 12 13 13 14 14 15 15 15 15 15 15 15 14 13 13 12 12 13 13 13
11 10 10 10 9 9 8 8 7 7 8 7 7 6 6 6 6 7 8 9 10 11 11 12 12 13 14 14 15 15 15 15 15 14 14 13 13 12 11 11 12 12 12
10 10 10 9 9 8 8 8 7 7 7 7 6 6 6 6 7 7 8 9 10 10 11 11 12 13 14 14 15 15 15 15 14 14 13 13 12 11 11 11 11 11 12
10 9 9 9 8 8 8 7 7 6 6 6 6 5 5 6 6 7 8 9 10 10 11 11 12 13 14 14 14 15 15 15 14 13 12 12 12 11 11 11 11 11 11
11 10 10 9 9 9 8 8 7 6 5 5 5 4 4 5 6 7 8 8 9 10 11 11 12 13 13 14 14 14 14 14 13 13 12 11 11 11 11 11 11 11 11
12 11 10 10 10 10 9 8 7 6 5 5 5 4 5 5 6 7 8 8 9 10 11 12 12 13 13 13 14 13 13 13 13 12 11 11 11 11 11 11 11 10 11
12 12 12 11 11 10 10 9 8 7 6 5 5 5 5 5 6 7 8 9 10 10 11 12 12 12 13 13 13 13 13 12 12 11 11 10 11 10 10 11 11 11 11
13 13 13 13 12 12 11 10 9 8 7 6 6 6 6 6 7 8 8 9 10 11 11 12 12 12 13 13 13 13 12 12 12 12 11 11 11 11 11 11 11 12 12
15 14 14 14 14 13 12 11 10 9 8 7 7 6 6 7 8 8 9 9 10 11 11 12 12 12 13 13 13 13 13 13 13 12 12 12 11 11 12 12 12 13 13

GEFSGL_500_meanwind_084.txt.gz
Wind_Speed
30 31 31 32 33 33 34 34 34 35 36 37 37 38 38 39 39 40 40 40 41 41 42 43 43 44 44 45 45 47 47 48 49 50 50 50 50 50 50 50 50 51 52
32 32 33 34 34 35 35 35 36 37 37 38 38 38 39 39 40 40 40 40 41 41 41 41 42 43 43 44 45 46 46 46 46 46 47 47 47 47 47 47 47 48 48
32 33 34 34 35 36 36 37 38 38 38 39 39 40 40 40 40 40 40 40 40 41 41 41 41 42 42 42 43 43 42 42 42 42 42 42 42 43 43 43 43 43 42
33 34 34 35 36 36 37 38 38 39 39 39 39 39 39 40 39 39 38 38 39 38 39 39 39 40 39 38 38 37 37 37 36 36 37 37 38 38 38 38 38 39 38
33 34 34 35 36 36 36 37 37 38 38 39 39 38 38 38 37 37 37 37 37 37 37 37 36 36 35 34 34 34 33 33 33 34 34 34 34 34 34 34 34 34 32
31 32 32 33 34 34 34 35 35 36 36 36 36 36 36 35 35 35 35 35 35 35 34 33 32 31 30 30 30 30 30 30 30 30 30 29 29 29 29 29 28 27 26
29 29 29 30 31 31 31 32 32 32 32 32 32 32 32 32 33 34 33 33 32 31 30 29 28 27 27 27 26 26 26 26 26 26 25 26 25 25 25 24 24 24 23
26 26 27 27 28 28 27 28 28 29 30 30 30 30 30 31 31 31 30 29 28 28 27 25 24 23 23 23 23 23 24 24 24 23 23 23 23 22 22 22 22 22 22
25 25 25 25 26 26 26 27 27 28 29 29 29 29 29 29 28 28 27 26 25 24 22 20 20 20 21 21 22 22 22 22 22 22 22 21 21 20 21 21 21 21 21
22 23 23 24 24 25 26 26 26 26 27 27 26 26 25 25 24 23 23 22 21 20 19 18 18 19 19 20 20 21 21 21 21 21 21 20 20 20 20 21 20 20 20
20 21 22 22 23 23 23 23 24 24 24 24 24 23 22 21 21 20 20 19 18 17 16 16 16 16 17 18 19 20 20 20 20 20 19 19 19 19 20 20 20 19 20
19 20 20 20 21 21 21 21 21 21 21 21 20 20 20 20 19 18 17 16 15 14 14 14 15 15 16 17 18 19 19 19 19 19 19 19 19 19 19 19 19 19 19
18 18 18 18 18 18 18 18 18 18 18 18 18 18 18 17 16 15 15 14 13 13 13 13 14 15 16 17 17 18 18 19 19 19 18 18 18 18 18 18 18 18 18
16 16 16 17 16 17 17 17 16 16 15 15 16 15 15 14 14 13 12 12 12 12 12 13 14 15 15 16 16 17 18 18 18 18 18 18 17 17 17 17 17 17 17
14 14 14 15 15 15 14 14 14 14 14 14 13 12 12 11 11 11 10 10 10 11 11 12 14 14 15 15 16 17 17 18 18 17 17 17 16 16 16 16 16 16 16
11 11 12 12 13 12 12 12 12 12 12 12 11 11 10 10 10 9 9 9 9 10 11 12 13 13 14 15 15 16 17 17 17 17 16 16 15 15 14 14 15 15 15
9 10 10 10 10 10 10 10 11 10 10 10 9 9 9 8 8 8 8 8 9 10 11 11 12 13 14 14 15 16 17 17 17 16 15 15 14 13 13 13 14 14 15
8 8 8 8 8 8 8 9 9 9 9 9 8 7 7 7 7 7 7 8 8 9 10 11 12 13 13 14 15 16 16 16 16 15 14 14 13 12 12 12 12 13 14
8 7 7 7 7 7 7 8 7 8 8 7 6 6 6 6 6 6 6 7 8 9 10 11 12 13 14 14 15 15 15 15 15 14 13 13 12 12 11 11 12 13 13
8 8 8 8 8 7 7 7 7 7 6 6 5 5 5 5 5 5 6 7 8 9 10 11 12 13 14 14 14 14 14 14 13 13 12 12 11 11 11 11 11 12 12
9 9 9 8 8 7 7 7 7 6 5 5 4 4 4 4 5 6 6 7 8 9 10 11 12 13 14 14 14 14 14 13 12 12 11 10 11 10 10 11 11 12 12
11 11 10 10 9 9 8 8 7 6 5 5 5 4 4 4 5 6 7 8 9 9 10 11 12 13 13 13 13 13 13 12 12 11 10 10 10 10 10 11 11 11 11
12 12 12 12 11 10 10 9 8 7 6 6 5 5 5 5 6 6 7 8 9 10 11 11 12 13 13 13 13 13 12 12 11 11 10 10 10 10 10 11 11 11 11
14 13 13 13 13 13 12 11 9 8 7 7 7 6 6 6 7 7 8 9 10 10 11 12 12 13 13 13 13 12 12 12 11 11 10 10 10 11 11 11 11 12 12
16 15 15 14 14 14 14 13 11 10 9 8 8 8 8 8 8 8 9 10 10 11 12 12 13 13 13 13 13 12 12 12 12 12 12 12 12 12 13 13 13 14 14
17 17 16 16 16 15 15 14 13 12 10 9 9 9 9 9 9 9 10 11 11 12 12 13 13 13 13 13 13 13 13 13 13 13 13 13 14 14 15 15 15 16 16

GEFSGL_500_meanwind_090.txt.gz
Wind_Speed
23 23 24 25 25 25 25 27 27 28 28 29 30 31 32 34 35 36 37 38 39 40 41 41 41 41 42 43 43 44 45 46 46 47 47 47 47 46 46 45 45 46 46
24 24 24 24 25 26 27 27 28 29 30 31 32 33 34 35 36 37 38 39 40 40 40 40 40 41 42 43 43 43 43 44 44 43 42 41 41 41 41 42 42 43 43
24 24 24 24 25 27 28 29 30 31 32 33 33 34 35 35 37 38 39 40 40 39 40 40 40 40 41 41 41 40 40 39 39 38 38 38 38 38 39 39 39 39 39
25 26 26 26 27 28 29 29 30 31 32 33 33 34 35 36 37 38 38 38 38 38 38 38 38 38 38 37 37 36 36 35 35 34 34 34 34 35 35 35 35 35 35
26 26 26 27 28 28 29 30 30 31 32 32 32 33 34 35 35 35 35 35 35 35 35 35 35 35 34 34 33 32 32 32 31 31 31 30 31 31 31 31 31 31 31
25 26 26 27 27 28 28 29 30 30 31 31 31 31 31 31 31 32 32 31 31 32 31 31 31 31 31 30 29 29 28 28 28 27 27 27 28 28 28 28 27 28 28
24 25 25 25 26 26 27 28 28 28 29 29 29 29 29 29 28 28 28 28 28 28 28 29 29 28 27 26 26 26 25 25 25 25 25 26 26 26 26 26 25 25 25
23 23 24 24 25 25 26 26 26 26 26 26 26 27 27 27 26 26 27 26 26 26 26 26 26 25 24 23 23 23 22 22 23 23 23 24 24 24 24 24 24 24 23
21 22 23 23 23 23 24 24 24 24 24 25 25 25 25 25 25 25 25 24 24 23 23 23 22 22 21 20 20 20 20 21 21 21 22 22 22 22 22 22 22 21 21
20 21 22 22 22 22 22 22 22 22 23 23 23 23 23 23 23 22 22 21 21 21 21 20 19 19 18 18 18 18 19 20 20 20 21 21 21 21 20 20 20 19 19
18 19 20 20 20 20 20 20 21 21 21 21 21 20 20 20 20 20 19 19 19 18 18 17 17 16 16 16 17 17 18 19 19 19 20 19 19 19 19 18 18 18 18
17 17 18 18 18 18 18 19 19 19 19 18 18 17 17 17 17 17 17 16 16 16 16 15 15 15 15 16 16 17 17 18 18 18 19 19 18 18 17 17 17 16 16
16 16 17 18 18 18 18 18 17 17 16 16 15 15 15 15 15 15 14 14 14 13 13 13 13 14 14 15 16 16 16 17 17 18 18 17 17 16 16 15 15 15 15
15 16 17 17 17 17 17 16 15 14 14 14 13 13 13 13 13 13 12 12 12 11 11 12 12 13 13 14 14 15 16 16 17 17 16 15 15 14 14 13 13 13 14
13 14 14 14 14 14 13 13 12 11 11 11 11 11 12 12 12 11 10 10 10 10 10 11 12 12 13 13 14 15 15 15 16 16 15 14 13 13 12 12 11 11 12
11 11 11 11 11 11 10 9 9 9 9 9 10 10 10 10 10 9 9 9 9 9 10 10 11 12 12 13 14 14 14 15 15 14 13 12 12 11 11 10 10 10 10
9 9 9 9 9 8 8 8 7 7 8 8 9 9 9 8 8 8 8 8 8 9 9 10 11 11 12 12 13 13 14 13 13 12 11 11 10 10 9 8 9 9 9
8 8 8 8 8 8 7 7 7 7 7 7 7 7 7 7 7 7 7 8 8 8 9 10 11 11 12 12 12 13 12 12 11 10 10 9 9 8 8 7 8 8 9
8 8 8 8 8 8 8 7 7 7 6 6 6 6 6 7 7 7 7 8 8 9 10 10 11 11 11 12 12 12 11 11 10 9 8 8 7 7 7 7 7 7 8
10 10 10 10 9 9 8 8 8 7 6 6 6 6 6 7 7 7 8 8 9 9 10 10 11 11 11 11 11 10 10 9 9 8 7 7 7 7 7 7 7 8 8
11 11 11 11 10 10 9 9 8 8 7 7 7 7 7 7 8 8 9 9 9 10 10 11 11 11 11 11 10 10 9 9 8 7 7 7 7 7 7 7 8 8 9
12 12 12 12 12 12 11 11 10 9 8 8 8 8 8 8 8 9 10 10 10 11 11 11 11 11 11 11 10 10 9 9 8 7 7 7 7 7 8 8 9 10 11
14 14 14 14 14 13 13 12 12 11 10 10 10 9 9 10 10 10 11 11 11 12 12 12 11 11 11 11 11 10 10 9 9 9 8 8 9 9 9 10 11 11 12
17 16 16 15 15 14 14 13 13 12 12 11 11 11 11 11 11 11 12 12 12 12 12 12 12 12 12 12 11 11 11 10 10 10 10 11 11 11 11 12 12 13 14
18 18 17 17 16 16 15 14 14 14 13 13 13 12 12 12 12 13 13 13 13 13 13 13 13 13 12 12 12 12 12 12 12 12 12 12 12 12 13 13 13 14 14
18 18 18 18 17 17 16 15 15 15 14 14 14 14 14 14 14 14 14 14 14 14 14 14 14 13 13 13 13 13 13 13 13 13 13 13 13 13 13 13 14 14 14

GEFSGL_500_meanwind_096.txt.gz
Wind_Speed
25 25 25 25 25 25 25 26 27 27 27 29 30 31 31 32 33 33 34 34 35 36 37 38 39 40 41 43 43 44 45 46 47 47 48 48 48 47 46 45 44 43 43
25 25 25 25 24 24 24 25 27 28 29 30 31 32 33 33 34 34 35 35 36 37 37 38 39 41 42 43 43 44 44 45 45 45 44 44 43 42 40 40 39 39 39
24 25 23 23 24 24 25 26 28 29 28 29 30 30 31 31 32 33 34 34 35 36 37 38 39 40 41 41 41 41 41 41 41 40 39 38 37 36 36 36 36 36 36
23 23 23 23 23 24 24 25 25 27 27 28 28 29 30 31 32 33 33 34 34 36 37 37 38 38 38 38 38 38 37 37 37 36 35 34 34 33 33 33 33 33 34
21 22 22 22 23 24 24 24 25 27 27 28 28 29 30 31 31 31 32 33 33 34 35 35 35 35 35 35 35 34 34 34 33 33 32 32 31 31 31 31 31 31 31
20 21 21 22 23 22 23 24 26 26 27 28 29 30 31 30 31 31 32 32 32 32 32 33 33 33 33 33 33 32 32 31 30 30 29 29 29 29 29 29 29 29 29
20 20 21 21 22 23 24 24 25 25 26 27 27 28 29 29 29 29 29 29 29 30 30 30 30 30 30 31 30 30 29 28 27 27 27 27 27 27 27 27 27 27 27
18 18 19 19 20 21 21 21 23 23 24 24 24 25 25 26 26 26 26 27 27 28 28 28 27 28 28 28 27 26 26 25 24 24 24 24 24 25 25 25 24 24 23
16 17 18 19 19 19 19 20 20 21 21 22 22 22 23 24 24 25 25 26 26 26 25 25 25 25 25 24 24 23 22 22 22 22 22 22 23 23 22 22 21 21 21
16 17 17 17 18 18 18 18 18 19 19 20 21 21 22 22 22 23 23 23 24 24 24 24 23 23 22 22 21 20 20 20 20 20 20 20 20 21 20 20 19 19 19
14 15 15 15 15 16 17 17 17 18 18 19 19 19 20 20 20 20 20 20 21 21 20 20 20 20 19 19 19 18 18 19 19 19 19 19 19 18 18 17 16 16 16
12 12 13 13 14 14 15 15 16 16 16 17 17 17 17 17 17 17 17 17 18 18 17 17 17 17 17 17 16 16 17 17 17 18 18 17 17 17 15 15 14 14 14
10 11 12 13 13 13 14 14 14 15 15 14 14 14 14 14 14 14 15 15 15 15 15 15 15 15 15 15 15 15 15 16 16 16 16 15 15 14 14 13 12 11 12
9 10 11 11 12 12 12 12 12 12 12 12 12 12 12 12 12 12 12 12 12 12 13 13 13 13 13 13 14 14 14 14 15 14 14 13 13 12 12 11 10 10 10
8 9 9 9 9 9 9 8 9 9 9 9 9 10 10 10 10 10 10 9 10 10 10 10 11 11 12 12 13 13 13 13 13 12 11 11 11 10 9 9 8 8 8
6 5 5 6 6 6 6 6 6 6 6 6 7 7 7 7 7 7 7 7 7 8 8 9 10 10 11 11 11 11 11 11 11 10 9 9 9 8 8 7 7 7 7
4 3 3 3 3 3 3 3 3 3 4 4 4 5 5 5 5 5 6 6 7 7 8 8 9 9 10 10 10 10 10 9 9 8 8 7 7 6 6 6 6 5 5
5 4 3 3 3 3 2 2 2 3 3 3 3 3 3 4 4 4 5 6 6 7 7 8 8 9 9 9 9 9 8 8 7 6 6 6 6 5 5 5 5 4 4
6 6 5 4 4 4 3 3 3 3 3 3 3 3 3 3 4 4 5 6 6 6 7 7 8 8 8 8 8 7 7 6 6 5 5 4 4 4 5 4 4 5 5
8 8 7 7 6 6 5 5 5 5 5 5 4 4 5 5 5 5 6 6 6 7 7 7 8 8 8 8 7 7 6 5 5 4 4 4 4 4 5 5 6 6 7
11 10 9 9 8 8 8 7 7 7 7 6 6 6 6 6 6 6 7 7 7 7 8 8 8 8 8 8 7 7 6 6 5 4 4 4 5 5 6 7 7 8 8
13 12 12 12 11 11 10 9 9 9 8 8 8 7 7 7 7 8 8 8 8 8 8 9 9 9 9 8 8 8 7 6 6 6 6 7 7 8 8 8 9 9 9
15 14 14 13 13 13 12 12 11 11 10 10 9 9 9 8 9 9 9 9 9 9 9 9 10 10 10 9 9 8 8 8 8 8 8 9 9 9 9 9 9 9 9
17 16 15 15 15 14 13 13 13 12 12 11 11 10 10 10 10 10 10 10 10 10 10 10 10 10 10 10 10 10 10 10 10 10 9 9 10 10 10 9 9 9 9
17 17 16 16 15 15 14 14 14 13 13 12 12 11 11 11 11 11 11 11 11 11 11 11 11 11 11 11 11 11 10 10 10 10 10 10 10 10 10 10 9 9 9
17 17 16 16 15 15 15 14 14 13 13 13 13 12 12 12 11 11 11 12 12 12 12 12 12 11 11 11 11 10 10 10 10 10 10 10 9 9 9 8 8 7 7

GEFSGL_500_meanwind_102.txt.gz
Wind_Speed
30 30 30 30 29 29 29 28 28 28 28 28 28 28 30 30 30 31 31 31 32 32 32 33 34 35 36 37 37 37 38 40 42 42 41 42 43 44 44 44 44 43 42
28 29 29 29 29 29 29 29 29 29 29 28 28 28 29 29 30 30 31 31 31 31 32 33 35 36 36 37 37 37 38 39 40 40 40 40 41 41 41 41 41 40 38
26 27 27 27 27 27 28 28 28 28 28 27 27 27 27 28 28 29 30 31 32 32 33 33 34 34 34 35 35 36 37 37 38 39 39 39 39 39 38 38 37 37 35
26 26 26 26 26 26 26 26 26 27 27 27 26 27 27 28 28 28 29 30 31 31 31 32 32 33 33 33 34 35 36 36 37 36 36 36 36 36 36 35 34 33 32
23 24 24 24 24 25 24 24 25 26 26 25 25 26 26 27 27 27 28 28 28 30 30 31 31 31 32 32 33 34 34 34 34 34 34 34 33 33 32 31 30 29 30
19 19 20 22 22 22 23 23 23 23 23 23 24 25 26 26 26 27 27 28 29 29 30 30 31 30 31 31 31 32 32 32 32 32 31 30 30 29 28 28 27 27 27
18 18 19 19 20 20 21 22 23 23 23 23 23 24 24 25 25 26 26 26 26 27 27 27 27 28 28 29 29 29 29 29 29 29 28 27 26 26 25 25 25 25 25
17 18 18 19 19 20 20 21 21 21 21 21 22 22 23 23 23 23 24 24 25 25 26 26 26 26 27 27 28 28 28 27 26 25 25 24 24 23 23 23 23 22 22
15 15 15 16 16 17 18 19 20 20 20 20 20 20 20 21 22 22 23 23 24 24 25 24 25 25 25 26 26 25 25 24 24 23 23 22 21 21 20 20 20 20 18
14 13 13 13 14 14 15 16 17 17 18 18 18 19 19 20 20 20 21 21 22 22 23 23 23 24 24 24 24 23 23 22 22 21 21 20 19 19 19 19 18 17 16
11 11 12 12 12 13 13 14 14 14 15 16 16 17 18 18 19 19 19 19 20 20 21 21 22 22 21 21 21 20 20 20 19 19 19 18 18 18 18 17 15 15 14
10 10 10 11 11 11 12 12 13 13 14 14 15 15 16 17 17 18 18 18 19 19 18 18 18 18 18 18 17 17 17 17 17 17 17 17 17 16 15 14 13 13 12
9 9 10 10 10 10 11 11 12 12 13 13 14 14 15 15 16 16 16 16 16 16 16 16 16 16 16 16 15 15 15 15 15 15 15 15 15 14 13 12 11 10 10
8 8 8 9 9 9 9 9 10 10 10 11 11 12 12 13 13 13 13 13 13 13 13 13 14 14 14 14 14 14 14 14 14 14 14 13 12 11 10 9 8 8 8
6 7 7 7 7 7 7 7 8 8 9 9 9 9 9 9 10 10 10 10 10 11 11 11 12 12 12 13 13 13 13 13 13 12 12 10 9 8 8 7 7 6 6
5 5 5 5 5 5 6 6 7 7 7 7 7 7 8 8 8 9 9 9 9 9 10 10 11 11 11 11 11 12 12 11 11 10 9 8 7 7 6 5 5 4 3
4 4 4 4 4 5 5 5 5 6 6 6 6 7 7 7 8 8 8 8 8 8 9 9 10 10 11 11 11 11 10 9 9 8 7 6 5 5 4 4 2 2 1
6 5 5 5 4 4 5 5 5 6 6 6 7 7 7 7 7 8 8 8 8 8 8 9 9 10 10 10 10 9 8 7 7 6 5 4 3 3 2 2 1 2 3
8 8 7 7 7 7 7 7 7 7 7 7 7 7 8 8 8 8 8 8 8 8 8 9 9 10 10 9 9 8 6 5 5 4 3 3 2 2 2 2 3 4 4
11 11 10 10 9 9 9 9 9 9 9 8 8 9 9 9 9 9 9 9 9 9 9 9 10 10 10 9 8 7 6 5 4 3 2 2 2 2 3 4 5 5 5
12 12 12 11 11 11 11 11 11 10 10 10 10 10 10 10 10 10 10 10 10 10 10 10 10 10 10 10 9 8 6 5 4 3 3 3 4 4 5 5 5 5 5
14 14 13 13 13 13 12 12 12 12 11 11 11 11 11 11 11 11 11 11 11 11 11 11 11 11 10 10 9 9 8 7 6 6 5 5 5 5 5 5 5 5 5
15 15 15 14 14 14 14 14 13 13 13 13 12 12 12 12 12 12 12 12 12 12 12 11 11 11 11 10 10 10 9 9 8 7 7 6 6 6 5 5 5 5 5
15 16 15 15 15 14 14 14 14 14 14 13 13 13 13 13 13 13 13 13 13 12 12 12 12 11 11 11 10 10 9 9 8 8 7 7 6 6 5 5 5 4 5
16 16 16 15 15 15 15 14 14 14 14 14 13 13 13 13 13 13 13 13 13 13 13 12 12 12 11 11 10 10 9 9 8 8 7 6 6 5 5 4 4 4 5
16 15 15 15 15 15 15 15 15 14 14 14 14 14 13 13 13 13 13 13 13 13 13 12 12 12 11 11 10 9 9 8 8 7 6 6 5 5 4 4 4 5 6

GEFSGL_500_meanwind_108.txt.gz
Wind_Speed
24 23 23 23 23 23 23 24 25 26 27 27 26 26 26 26 27 27 27 27 28 29 30 30 30 30 30 31 32 32 32 33 34 34 35 36 36 36 36 37 38 39 39
23 23 23 22 23 23 23 24 24 25 26 27 26 27 27 27 26 27 27 28 28 28 29 30 30 30 30 31 31 32 32 33 33 34 34 35 36 36 37 38 37 37 38
21 22 22 23 23 23 22 22 23 24 24 25 25 26 26 26 26 26 26 26 26 27 27 28 28 28 29 30 31 32 32 32 33 33 34 34 35 36 36 36 36 35 35
19 20 21 21 22 22 22 22 22 22 23 23 23 24 25 25 25 25 25 25 26 26 26 26 27 27 28 29 30 31 31 31 32 32 33 34 34 34 35 34 34 33 33
18 18 18 19 19 20 19 20 20 21 21 21 20 21 22 23 23 24 24 24 24 24 24 24 25 26 27 28 29 29 29 30 31 32 33 33 33 32 32 32 31 31 30
16 15 16 16 17 18 18 18 19 19 19 19 18 19 19 20 20 21 22 22 22 22 23 24 25 25 26 27 27 28 29 30 30 31 31 31 31 31 30 29 29 28 28
14 13 14 14 15 15 15 16 16 16 16 17 17 17 18 18 18 19 19 20 20 21 22 23 24 24 25 25 26 27 28 28 29 29 28 28 28 27 27 26 26 26 26
12 11 11 12 12 12 12 13 14 15 15 15 16 16 16 16 17 18 18 19 19 20 21 21 22 23 24 24 25 25 26 26 26 26 26 25 25 24 24 24 24 24 24
11 10 11 11 11 11 12 12 13 13 13 13 14 14 14 15 16 17 17 18 18 19 20 20 21 22 22 23 23 24 24 24 24 23 22 22 22 22 22 22 22 21 21
9 9 9 10 10 10 11 11 11 12 12 13 12 13 13 13 13 14 15 16 17 18 18 19 20 20 21 21 21 22 22 21 21 20 20 20 20 20 20 19 19 18 17
7 7 8 8 8 8 9 10 9 10 10 11 11 12 12 11 11 12 13 14 14 15 16 16 17 17 18 19 19 19 18 18 18 18 19 19 19 18 18 17 16 15 15
5 5 6 6 6 6 6 7 7 8 8 8 9 9 9 10 10 11 11 11 12 12 13 14 14 15 15 16 16 16 16 16 16 16 16 16 16 16 15 15 14 13 13
3 3 4 4 4 3 4 4 4 5 5 6 6 7 7 8 8 9 9 9 10 11 11 12 12 12 13 13 14 14 14 14 14 14 14 13 13 13 13 12 11 11 11
2 3 2 2 2 2 1 1 1 2 3 3 4 5 5 6 6 7 7 8 8 8 9 9 10 11 11 12 12 12 12 12 12 12 12 12 12 11 11 10 10 9 9
2 2 2 2 1 1 2 2 2 2 2 2 3 3 4 4 5 6 6 6 6 6 6 7 8 9 9 10 10 10 11 11 11 10 10 10 9 9 9 8 8 7 6
4 4 4 4 4 4 4 4 3 3 3 3 3 4 4 4 5 5 5 5 4 5 5 6 7 8 8 9 9 9 9 9 9 8 8 7 7 7 6 6 5 5 4
7 6 6 6 6 6 6 6 6 6 6 5 5 5 5 5 5 5 5 4 4 4 5 6 6 7 8 8 8 8 8 7 7 6 5 5 5 4 4 4 3 2 1
9 9 9 9 9 9 8 8 8 8 7 7 7 7 7 7 7 7 6 6 6 5 6 6 7 7 8 8 7 7 6 5 4 4 3 2 2 2 2 2 1 1 1
11 11 11 11 11 11 11 10 10 9 9 9 9 9 9 9 9 8 8 8 7 7 7 7 8 8 8 8 7 6 5 4 3 2 1 1 1 1 2 2 2 2 2
13 13 13 13 13 13 12 12 12 12 11 11 10 10 10 10 10 10 10 9 9 8 9 9 9 9 9 8 8 7 6 4 3 3 3 3 2 2 3 3 3 2 2
14 14 14 14 14 14 14 14 14 13 13 12 12 12 11 11 11 11 10 10 10 10 10 10 10 10 10 10 9 8 7 6 5 5 4 4 3 3 3 3 3 3 2
15 15 15 15 15 15 15 14 14 14 14 14 13 13 12 12 12 12 11 11 11 11 11 11 11 11 11 11 10 10 9 8 7 6 5 5 4 4 3 3 3 3 3
16 16 16 15 15 15 15 15 14 14 14 14 14 14 14 14 13 13 12 12 12 12 12 12 12 12 12 11 11 10 10 9 8 7 6 5 5 4 4 3 3 3 3
16 16 17 17 16 16 16 15 15 15 15 14 14 14 14 14 14 14 14 13 13 13 13 13 13 12 12 12 11 11 10 9 9 8 7 6 5 5 4 4 4 4 4
17 17 17 17 16 16 16 16 15 15 15 14 14 14 14 14 14 14 14 13 13 13 13 13 13 12 12 12 11 11 10 9 8 7 6 6 5 5 5 5 5 6 7
16 16 16 16 16 16 16 16 16 15 15 15 15 15 14 14 14 13 13 13 13 13 13 12 12 12 12 12 11 10 9 9 8 7 7 6 6 6 6 7 8 8 9

GEFSGL_500_meanwind_114.txt.gz
Wind_Speed
26 27 27 28 27 26 26 26 26 25 25 26 26 27 27 27 27 27 28 28 29 29 28 28 30 31 32 32 33 33 32 33 33 34 35 35 35 34 35 36 36 37 38
25 26 26 26 27 27 26 26 26 25 25 26 26 27 27 28 28 28 28 27 27 27 28 28 29 30 30 31 32 32 32 33 33 33 33 34 34 35 35 36 37 38 39
24 24 24 24 24 25 25 25 25 25 26 26 26 27 28 28 28 28 28 28 28 27 28 28 29 29 30 31 31 31 31 31 32 33 33 33 34 34 35 36 37 38 37
22 21 21 21 21 22 22 23 24 24 25 25 25 25 26 26 27 27 28 28 28 28 28 29 29 30 29 29 29 30 30 31 32 32 32 33 33 34 36 36 37 36 35
19 19 19 19 19 19 20 21 22 22 22 23 23 23 23 24 25 26 27 27 27 27 27 27 28 29 28 29 29 30 30 31 30 30 31 32 33 34 34 35 34 34 33
19 18 17 17 17 18 18 19 19 19 20 21 21 22 22 22 23 24 24 24 24 25 25 26 27 27 27 28 28 29 29 29 30 30 31 31 32 32 32 32 32 31 31
16 16 16 16 16 16 17 17 16 16 17 18 18 18 19 19 20 21 22 22 23 23 24 24 24 24 25 26 26 28 28 28 29 29 29 30 30 30 30 30 30 29 28
15 14 14 15 15 15 14 14 15 15 16 16 16 16 16 17 17 18 19 20 20 20 21 21 22 22 23 24 25 25 26 27 28 28 28 28 27 28 27 27 26 26 25
12 12 13 13 13 13 13 12 12 12 12 12 13 14 15 15 15 16 17 17 18 18 19 20 21 21 21 22 23 24 24 25 26 26 25 25 25 25 25 24 24 23 23
10 10 10 10 11 11 11 11 11 11 10 11 11 12 12 13 14 14 15 16 17 17 17 18 19 20 20 20 21 22 22 22 23 23 23 23 23 23 23 22 22 21 20
8 8 8 8 8 8 8 8 9 9 9 9 9 10 11 11 12 13 13 14 14 14 15 15 16 17 18 19 19 20 21 20 20 20 20 21 20 20 20 19 19 17 16
7 7 7 6 6 6 6 7 7 7 7 8 8 8 8 9 9 9 10 10 11 11 12 13 14 15 16 17 18 18 18 18 18 18 18 18 17 17 16 16 15 14 13
4 4 4 5 4 4 3 3 3 3 4 4 4 5 6 6 6 6 7 8 9 10 11 12 13 13 14 14 14 15 15 15 15 15 15 15 15 14 14 13 12 11 10
4 3 3 2 2 1 1 1 1 2 1 1 1 2 2 3 4 6 6 7 8 8 9 9 10 10 10 10 11 11 11 11 12 12 12 12 12 11 10 9 8 8 7
5 5 5 4 4 4 4 4 3 3 3 2 3 3 3 4 4 5 5 5 5 6 6 7 7 7 8 8 9 9 9 9 9 10 9 9 8 7 6 6 6 5 5
7 7 7 7 7 7 7 6 6 6 5 5 5 5 5 5 5 5 5 5 5 5 5 6 6 6 7 7 7 7 7 7 7 7 6 6 5 4 4 4 4 3 3
9 9 9 9 9 8 9 8 8 8 8 8 7 7 7 7 7 7 7 7 7 7 7 7 7 8 7 7 7 7 7 6 5 5 4 4 4 3 3 2 2 2 2
12 11 11 11 11 11 10 10 10 10 10 9 9 9 9 9 9 9 9 9 9 9 9 9 9 9 9 9 8 7 7 6 5 4 4 4 4 3 3 3 2 2 2
13 13 13 13 13 12 12 12 12 11 11 11 11 11 10 10 10 10 10 10 10 10 10 10 10 10 10 9 9 8 8 7 6 5 5 5 4 4 4 3 3 3 2
14 14 14 14 14 14 14 14 13 13 13 12 12 12 12 11 11 11 11 11 11 11 11 12 11 11 11 10 10 9 8 8 7 6 6 6 5 5 5 4 4 3 3
15 15 15 15 15 15 15 15 15 15 14 14 14 14 14 13 13 12 12 12 12 12 13 13 13 12 12 11 11 10 9 9 9 8 7 7 6 6 5 5 4 4 4
15 15 15 15 16 16 16 16 16 16 16 16 16 15 15 15 14 14 14 14 14 14 14 14 14 14 13 13 12 12 11 10 9 9 8 8 7 7 6 6 5 5 5
16 16 16 16 17 17 17 17 17 16 16 16 16 16 16 15 15 15 14 14 14 14 14 15 14 14 14 14 13 13 12 11 10 9 9 8 7 7 7 7 6 7 8
17 16 16 16 16 17 16 16 16 16 16 16 16 16 16 15 15 15 14 14 14 14 14 14 14 14 14 13 13 12 12 11 11 10 9 9 9 9 8 9 9 9 10
16 16 16 16 16 16 16 15 15 15 15 15 15 15 15 15 15 15 15 14 14 14 13 13 13 13 13 13 13 12 12 12 11 11 11 10 10 10 11 11 11 12 13
16 15 15 15 15 15 15 15 14 14 14 14 14 14 14 14 14 15 15 14 14 14 14 14 14 13 13 13 13 13 13 13 12 12 12 12 12 12 13 13 14 14 15

GEFSGL_500_meanwind_120.txt.gz
Wind_Speed
27 28 28 28 29 29 30 30 30 30 29 29 28 29 29 29 30 30 31 31 31 33 34 34 35 35 35 34 35 35 35 35 35 36 37 37 37 36 37 37 37 37 37
26 26 26 26 27 28 28 28 28 28 28 27 27 27 28 28 28 29 29 31 31 31 32 32 32 33 33 32 34 34 34 35 36 37 37 36 36 36 36 36 36 37 37
25 25 25 25 25 26 26 26 26 26 26 26 26 26 26 26 27 28 29 29 30 30 30 30 31 31 31 32 32 33 33 34 35 35 35 35 35 34 35 36 37 36 37
24 24 23 23 23 22 22 22 23 24 25 25 26 26 25 26 27 27 27 28 29 29 29 29 29 30 30 31 30 31 32 34 35 35 35 35 35 35 35 36 36 36 36
23 22 22 21 21 20 20 20 21 21 23 23 23 23 24 24 25 25 26 26 26 27 28 28 28 29 29 29 29 30 31 31 32 32 33 34 34 34 34 34 34 34 34
21 20 20 19 19 18 18 19 19 19 19 20 20 21 20 21 22 22 23 24 24 25 26 27 28 28 28 28 29 29 28 29 30 30 31 31 32 32 32 32 32 32 32
18 18 17 16 15 15 15 15 16 17 17 17 17 18 18 19 19 20 21 21 21 23 24 24 25 25 25 25 26 27 28 29 29 29 29 29 29 30 30 30 30 30 30
16 16 15 14 13 13 12 12 12 13 13 14 14 15 16 16 16 17 17 18 18 19 20 20 21 21 22 23 24 25 25 26 26 26 27 27 27 27 27 27 27 27 27
14 13 12 12 11 10 10 10 9 10 10 11 11 12 13 13 12 13 14 15 15 16 16 17 18 19 20 20 20 21 22 22 23 23 24 24 24 24 24 24 23 23 23
11 11 10 9 9 8 8 8 8 7 7 7 7 8 9 9 10 10 11 12 13 13 14 14 14 15 15 16 17 18 18 19 19 20 20 20 21 21 21 20 20 19 19
9 8 8 7 7 6 6 5 5 5 5 5 6 6 6 6 6 6 7 8 9 10 11 11 12 12 13 14 15 15 15 16 16 16 17 17 17 18 18 18 18 18 18
7 6 6 5 5 4 4 3 3 3 3 4 3 3 2 2 3 4 4 5 6 6 7 8 8 9 10 11 12 12 12 12 13 13 14 14 14 15 15 16 16 16 16
5 5 4 2 1 1 1 1 1 1 1 1 1 1 1 1 1 1 2 2 3 3 4 4 5 6 7 8 8 8 9 9 9 10 10 11 11 12 12 13 13 13 13
4 4 3 3 3 3 4 4 3 3 4 4 4 3 3 3 3 3 3 3 3 3 4 4 5 5 6 6 6 6 6 7 7 7 7 8 8 9 9 9 9 9 9
5 6 6 6 7 7 7 7 7 6 6 6 6 6 5 5 6 7 7 6 6 5 5 5 5 5 5 5 5 5 6 6 6 5 6 6 6 6 7 7 7 7 8
8 9 9 9 9 9 9 9 8 8 8 8 8 8 8 8 8 8 8 7 7 7 7 7 6 6 6 6 5 5 5 5 5 5 5 5 5 5 6 6 6 6 6
11 11 11 11 11 11 11 11 11 11 11 10 10 10 10 9 9 8 8 9 9 9 9 8 8 8 7 7 7 6 6 5 5 5 5 5 5 5 5 5 5 5 5
12 12 12 12 12 12 13 13 12 12 12 11 11 10 10 10 9 10 10 10 10 9 9 9 9 9 8 8 8 8 7 6 6 5 5 5 5 5 4 4 4 5 5
12 13 13 13 13 14 14 13 13 13 13 12 12 11 11 11 11 11 11 11 11 11 11 10 10 10 10 9 9 9 8 7 7 6 6 6 6 5 5 5 5 5 5
13 14 14 14 15 15 15 14 14 14 14 13 13 13 13 13 12 12 12 12 12 12 12 12 12 12 11 11 10 10 9 9 8 8 7 7 7 6 6 6 6 6 6
15 15 15 15 16 16 16 16 16 16 15 15 15 14 14 14 14 13 13 13 13 13 13 13 13 13 12 12 12 11 10 10 9 9 9 8 8 7 7 7 7 7 7
15 15 16 16 16 16 16 16 16 16 16 15 15 15 14 14 14 14 14 14 14 14 13 13 13 12 12 12 12 11 11 10 10 10 10 9 9 9 9 8 8 9 9
15 15 15 15 15 15 16 16 16 16 15 15 15 15 14 14 14 14 14 14 14 14 13 13 13 13 12 12 12 11 11 11 11 11 10 10 10 10 10 11 11 11 12
14 15 15 15 15 14 14 15 15 15 15 14 14 14 14 14 14 14 14 13 13 13 13 13 13 13 13 13 13 12 12 12 12 12 12 12 12 12 12 12 13 14 15
14 14 14 14 14 14 14 14 14 14 14 14 14 14 14 14 14 13 13 13 13 13 13 13 13 13 13 13 14 14 14 13 13 13 14 14 14 14 15 15 16 16 17
13 13 13 13 13 13 13 13 13 13 13 13 13 13 13 13 13 13 13 13 13 13 13 13 14 14 14 14 14 14 14 15 15 15 16 16 16 17 17 18 18 19 19

GEFSGL_500_meanwind_126.txt.gz
Wind_Speed
27 27 28 28 29 29 29 29 29 30 30 30 30 31 31 30 30 31 30 30 30 30 31 31 31 31 32 32 32 32 33 33 33 33 33 33 33 35 36 36 35 35 34
26 26 26 26 27 27 27 27 28 28 28 29 28 28 29 29 29 30 30 30 30 30 29 29 30 31 32 32 32 32 32 32 32 32 33 33 34 35 35 34 34 34 33
25 25 25 25 25 25 25 26 26 27 26 26 26 25 26 27 27 27 28 28 28 28 28 27 27 28 29 29 30 30 30 31 31 32 32 33 33 33 33 33 33 34 33
24 25 25 25 25 25 25 25 25 24 24 24 24 24 24 24 25 25 25 25 26 26 25 26 26 27 27 28 28 29 30 30 30 30 30 30 31 32 33 33 33 33 33
23 24 24 24 24 23 23 23 23 22 22 22 22 23 23 23 23 23 23 23 23 23 23 23 24 25 26 26 27 28 28 28 28 28 29 30 30 30 30 31 31 31 31
22 22 22 21 21 21 21 21 21 20 21 21 21 21 21 21 21 21 21 20 20 20 20 21 21 22 23 24 25 26 26 26 26 27 27 27 28 29 28 28 28 28 28
19 19 19 19 18 18 18 17 17 17 17 17 17 17 17 18 17 17 17 18 18 17 18 19 20 21 21 22 22 22 22 23 23 24 25 25 26 26 26 26 26 25 26
18 18 18 17 17 16 15 14 15 15 14 14 14 14 14 14 14 15 15 15 16 16 16 16 17 17 18 19 19 20 21 21 21 22 23 24 24 23 23 23 24 24 24
16 16 17 16 14 12 11 11 11 11 11 11 11 11 11 11 12 12 13 13 14 14 14 14 14 15 15 16 16 17 17 18 19 20 20 21 21 21 21 21 21 20 20
14 15 15 13 12 10 10 9 9 8 7 7 7 8 8 8 9 9 10 10 10 10 10 10 11 11 12 13 13 13 13 14 15 16 16 16 16 16 16 16 16 16 16
13 13 12 10 9 9 8 7 7 6 5 5 5 6 5 5 5 5 5 6 7 7 7 7 8 8 8 8 8 9 9 9 9 10 10 11 11 11 12 12 13 14 14
11 10 9 8 7 6 6 5 4 4 4 4 4 3 3 3 2 2 2 2 2 2 3 3 3 4 4 5 5 6 6 7 7 7 8 8 9 10 10 11 12 12 12
9 8 8 7 6 5 4 3 3 3 3 4 4 4 4 4 5 5 5 5 4 4 4 4 4 4 4 3 4 4 5 5 5 5 6 6 7 8 8 9 10 10 11
7 8 8 7 7 6 4 4 3 4 5 6 6 7 7 7 7 7 7 7 7 7 7 7 6 6 5 5 4 5 5 5 5 5 6 6 6 7 7 8 9 9 10
7 7 7 7 7 7 7 6 6 6 6 7 8 8 9 9 9 9 9 9 9 9 9 9 8 8 7 7 7 6 6 6 6 5 5 6 6 7 8 8 8 9 9
7 8 8 8 8 8 9 8 8 8 8 8 9 10 10 10 10 11 11 11 11 10 10 10 10 10 9 9 9 9 8 8 8 7 7 7 8 8 8 8 8 8 8
8 9 9 10 10 10 10 10 10 10 10 10 10 11 12 12 12 12 12 12 12 12 12 12 12 12 12 12 12 11 11 10 9 9 9 9 9 9 9 9 9 9 9
9 10 11 12 12 12 12 11 11 11 12 12 12 12 13 13 13 14 13 13 13 13 13 13 14 14 14 13 13 12 12 12 11 11 11 11 11 11 10 10 10 10 10
11 12 12 12 13 13 14 13 13 13 13 13 14 14 14 14 14 14 14 14 14 14 14 15 15 15 15 15 14 14 14 14 13 13 13 13 12 12 12 12 11 11 11
12 13 13 13 14 15 15 15 15 15 15 15 15 15 15 14 14 14 14 15 15 15 15 15 16 16 16 15 15 15 14 14 14 14 14 14 13 13 13 13 13 13 13
12 13 14 14 15 15 15 15 15 15 15 15 15 15 15 15 15 15 15 16 16 16 16 16 16 16 16 16 16 15 15 15 15 14 14 14 14 14 14 14 14 14 14
13 14 14 15 15 15 15 15 15 15 15 15 15 15 15 15 16 16 16 16 16 16 16 16 16 16 16 16 16 16 16 15 15 15 15 15 15 15 15 16 16 16 17
13 13 14 14 15 15 15 15 15 16 16 16 16 16 16 16 16 16 16 16 16 16 16 16 16 16 16 16 16 16 16 16 16 17 17 17 17 17 17 17 18 18 19
12 13 13 13 14 14 14 15 15 15 15 15 15 15 15 15 15 15 15 15 16 16 16 16 16 16 16 16 16 16 16 17 17 17 17 17 18 18 19 19 20 20 21
11 11 12 12 13 13 13 13 14 14 14 14 14 14 14 14 14 14 14 15 15 15 15 15 15 16 16 16 17 17 18 18 18 19 19 19 19 20 21 22 22 23 24
10 10 10 11 11 11 11 12 12 12 12 13 13 13 13 13 13 13 13 13 14 14 14 15 15 16 16 17 18 18 19 19 20 20 21 21 22 22 23 24 25 26 26

GEFSGL_500_meanwind_132.txt.gz
Wind_Speed
26 25 25 25 25 26 26 26 26 27 28 27 27 26 26 26 26 26 26 27 27 28 28 28 28 27 26 26 26 27 27 28 28 29 29 29 30 29 29 29 29 29 30
24 24 24 23 23 24 24 25 25 26 25 25 25 26 25 25 24 24 24 24 25 26 26 26 27 26 26 26 26 26 26 27 28 28 28 28 28 29 29 29 29 29 30
23 23 23 23 23 23 24 24 24 24 24 24 24 24 24 23 23 23 22 22 23 23 24 24 24 24 25 25 25 26 26 25 26 27 28 27 27 28 29 29 30 29 30
22 22 22 22 23 23 23 23 23 23 23 22 22 22 22 22 22 21 21 21 22 22 23 23 23 23 23 24 24 25 25 25 25 25 25 26 27 27 28 28 28 27 28
21 21 21 21 22 21 21 21 21 20 20 20 19 20 20 20 20 19 19 19 20 20 21 21 22 22 22 23 23 23 24 24 25 25 25 24 24 24 24 25 26 26 26
20 20 20 19 19 18 18 18 17 17 17 17 16 17 17 18 17 17 17 17 17 17 17 17 18 19 20 20 20 20 21 21 22 23 23 24 23 23 23 24 24 24 25
18 18 18 17 17 16 15 15 15 14 14 14 14 14 14 14 14 15 14 14 14 14 13 14 15 16 17 17 17 18 19 19 19 20 21 22 21 21 21 21 22 22 23
17 16 16 15 14 14 14 14 13 12 12 11 11 10 10 10 10 11 11 11 11 11 12 13 13 13 14 15 15 15 15 16 17 17 18 18 18 18 18 18 18 20 20
15 14 14 12 12 12 12 11 11 10 10 9 8 7 6 6 6 6 6 7 7 8 9 10 10 9 10 11 11 12 12 13 13 14 14 14 14 15 16 17 17 18 18
13 12 11 10 10 10 9 9 9 8 7 6 5 5 5 4 4 3 3 3 3 4 5 5 5 5 6 7 7 8 8 9 9 9 9 10 11 12 13 13 14 14 14
11 9 9 9 9 8 7 6 7 6 6 5 5 4 4 4 4 3 2 2 1 1 1 1 1 1 1 1 2 3 3 4 5 5 6 7 7 8 9 10 10 11 12
8 8 7 7 7 6 6 6 6 7 6 7 6 6 5 5 6 7 6 5 5 5 5 5 4 4 3 3 2 2 1 2 2 2 3 3 4 5 6 6 7 8 8
7 7 6 6 6 6 6 6 7 7 7 7 8 8 8 8 9 10 10 9 9 9 8 7 6 6 6 5 5 4 4 3 3 2 2 3 3 3 4 4 5 6 7
7 7 6 7 7 8 8 8 8 8 8 9 10 10 10 10 11 11 11 11 11 11 10 10 10 10 9 8 7 7 7 6 5 5 4 4 4 5 5 5 6 6 7
7 7 8 8 8 8 9 9 10 10 10 10 11 12 12 12 12 12 11 12 13 13 13 13 13 12 11 11 10 10 9 9 8 8 7 7 7 7 7 7 7 8 8
8 8 8 9 10 10 10 11 11 12 12 13 13 13 13 13 13 14 14 15 15 15 15 15 15 15 14 14 13 13 12 12 11 11 10 9 9 8 9 9 9 9 9
9 9 10 10 11 12 12 13 14 14 14 14 15 15 16 16 16 16 16 16 17 17 17 16 16 15 15 15 14 14 14 13 12 11 11 11 11 10 10 10 10 10 11
10 11 11 12 13 14 15 15 16 16 16 16 16 17 17 17 17 17 17 17 17 17 17 16 16 16 15 15 14 14 14 14 13 12 12 12 12 12 11 11 11 12 12
13 14 14 14 15 15 16 16 16 16 16 17 17 17 17 17 17 17 18 18 18 17 17 16 16 16 16 15 15 15 14 14 13 13 13 13 13 13 13 13 13 13 13
14 15 15 15 15 15 15 16 16 16 17 17 18 18 18 18 18 18 18 18 18 18 17 16 16 15 15 15 14 14 14 13 13 13 13 13 13 13 14 14 14 14 15
14 14 15 15 15 15 15 15 16 17 17 17 18 18 18 18 18 17 17 17 17 16 16 15 15 15 15 14 14 14 14 14 14 14 14 14 14 14 15 15 16 16 17
13 14 15 15 15 15 15 15 15 16 16 16 16 16 16 16 16 16 16 15 15 15 14 14 14 14 14 14 14 14 14 14 14 15 15 15 16 16 17 17 18 18 19
12 13 14 14 14 15 15 14 15 15 15 15 15 14 14 14 14 14 14 13 13 13 13 13 13 13 13 13 14 14 14 14 15 16 16 17 17 18 18 19 20 21 22
11 12 12 13 13 13 13 14 14 14 14 14 14 13 13 13 13 13 12 12 12 12 12 12 12 12 12 13 13 14 14 15 15 16 17 18 19 20 21 22 23 24 24
10 10 10 10 11 11 12 12 13 13 12 12 12 12 11 11 11 11 11 11 10 10 10 11 11 12 12 13 14 14 15 15 16 17 18 20 21 22 23 24 25 26 27
9 8 8 9 10 10 10 10 10 10 10 10 10 10 10 10 10 9 9 9 9 9 10 10 11 12 13 14 14 15 16 17 18 19 20 22 23 25 26 27 28 29 30

GEFSGL_500_meanwind_138.txt.gz
Wind_Speed
23 24 24 24 24 23 23 23 23 23 24 24 25 26 27 27 27 27 28 28 28 28 29 29 28 28 29 29 29 29 29 28 28 28 28 29 30 30 30 30 32 32 32
22 22 22 22 22 21 21 21 21 21 22 22 23 24 25 25 26 27 27 27 26 26 26 26 27 27 27 27 28 27 28 28 28 27 28 28 29 29 30 30 30 30 31
22 22 21 21 21 20 20 20 20 21 21 21 22 22 23 23 24 24 25 25 25 25 25 25 25 26 26 26 26 26 26 27 27 27 28 28 28 29 29 28 28 28 28
22 21 21 20 20 19 18 18 18 19 19 19 20 20 21 21 22 22 23 23 23 22 22 23 23 23 23 24 24 24 24 25 26 26 27 27 27 27 28 27 26 26 26
20 20 19 18 17 17 17 17 17 17 17 18 18 18 19 20 20 20 20 21 21 20 20 20 20 20 20 21 21 22 22 23 24 25 25 25 25 25 25 25 26 26 26
18 17 17 16 15 15 15 15 15 15 16 16 15 15 16 16 16 17 17 17 17 17 17 17 17 17 17 17 18 18 19 19 20 21 21 22 23 22 23 23 24 25 25
16 15 14 14 13 13 13 14 14 14 14 13 13 13 14 13 13 12 12 12 13 13 13 13 13 13 14 14 15 15 15 16 17 18 18 18 19 20 20 21 21 21 22
15 15 14 13 13 13 13 13 13 12 12 11 11 11 10 10 9 10 9 9 9 9 9 9 9 10 11 11 11 11 12 12 13 14 14 15 15 16 16 17 17 18 19
13 13 12 12 12 12 11 11 11 11 11 10 9 8 7 7 7 6 5 5 5 6 6 6 6 6 6 7 7 8 9 8 8 10 11 11 12 12 14 14 14 14 15
10 11 11 11 10 10 9 9 9 9 9 8 7 6 5 5 4 4 3 3 3 3 3 3 3 2 2 3 4 4 5 5 6 7 8 9 10 10 11 11 12 12 12
10 10 9 9 9 8 8 7 7 7 7 7 7 6 5 4 4 4 3 3 3 2 2 2 2 1 1 0 1 1 2 2 3 4 5 5 6 7 7 8 8 10 10
9 8 8 8 7 7 7 7 7 7 7 7 7 7 6 5 5 5 5 5 5 5 6 6 5 5 5 4 4 4 3 3 3 3 3 3 3 4 5 5 7 7 8
7 7 7 7 7 7 7 7 7 7 8 8 8 8 7 7 7 8 9 9 9 9 8 8 8 9 8 8 7 7 6 6 6 5 5 5 5 5 6 6 7 7 8
6 6 6 6 6 7 7 7 8 8 8 9 9 9 9 9 10 10 10 11 11 11 11 10 10 10 10 10 9 9 8 8 8 8 8 8 8 8 8 8 9 9 10
6 6 7 7 7 8 8 8 8 9 10 11 11 11 12 12 12 12 12 13 14 14 14 13 13 13 13 13 13 12 12 11 11 11 10 10 10 9 10 10 10 11 11
6 7 7 8 8 9 9 10 10 10 11 11 12 13 13 14 14 14 15 15 15 15 15 15 15 15 14 14 13 13 13 13 12 12 11 11 11 11 11 12 12 12 13
7 8 8 9 9 10 11 11 12 12 12 13 14 14 14 15 15 15 15 15 15 16 16 16 16 15 15 14 14 14 13 13 12 12 12 12 12 12 12 13 14 14 14
9 9 9 10 11 12 12 12 13 13 14 14 14 14 15 15 16 16 16 16 16 17 16 16 16 15 15 15 14 14 13 13 13 13 13 13 13 13 14 14 15 15 16
10 10 11 11 12 12 12 12 13 13 14 14 15 15 15 16 16 16 16 16 16 16 16 15 15 15 15 14 14 13 13 13 13 13 14 14 14 14 15 16 17 17 18
11 11 11 12 12 12 12 12 13 13 14 14 15 15 16 16 16 15 15 15 15 15 14 14 14 14 14 14 13 13 13 14 14 14 14 15 15 16 16 17 18 19 20
11 12 12 12 12 12 12 12 13 13 13 14 14 14 14 14 14 14 14 14 13 13 13 13 13 13 13 13 13 13 14 14 15 15 15 16 16 17 18 19 20 21 22
10 10 11 11 11 11 11 11 11 12 12 12 12 13 13 13 13 13 13 12 12 12 12 12 12 12 12 12 13 13 14 14 15 16 16 17 18 19 20 21 22 23 24
8 9 9 9 9 10 10 10 10 10 11 11 11 11 11 11 11 11 11 11 10 10 11 11 11 11 11 12 12 13 13 14 15 16 17 19 20 21 22 24 25 26 27
7 7 7 7 8 8 8 8 8 9 9 9 9 9 9 9 9 9 8 8 8 9 9 9 10 10 11 11 12 13 14 15 16 18 19 20 22 23 25 26 28 29 30
4 4 5 5 5 5 5 5 6 7 7 7 7 7 6 6 6 6 6 6 6 7 7 8 9 9 10 11 12 14 15 16 18 19 21 22 24 26 27 29 30 31 32
2 3 3 3 3 3 3 3 4 4 4 4 4 3 3 3 3 4 4 4 5 6 7 8 9 10 11 12 14 15 17 18 20 21 23 25 26 28 29 31 32 33 35

GEFSGL_500_meanwind_144.txt.gz
Wind_Speed
23 22 22 22 22 22 23 23 23 23 23 23 22 23 24 25 25 25 26 27 27 28 28 28 29 29 29 30 30 29 29 29 29 30 30 30 30 30 30 29 29 30 30
21 20 20 20 21 22 22 23 22 22 22 23 22 22 22 23 23 23 23 23 24 25 25 26 26 27 28 28 28 28 28 28 28 28 29 29 29 29 28 27 28 28 27
20 19 19 19 20 20 21 20 20 20 20 20 21 21 21 21 22 22 21 22 22 22 23 23 23 24 25 26 26 26 26 25 25 26 26 27 27 27 27 26 27 26 26
18 18 18 18 18 19 19 18 18 18 18 19 18 18 19 19 19 19 20 20 20 20 20 20 20 21 21 22 22 22 22 22 22 23 23 24 24 24 24 24 24 24 24
17 17 17 17 17 17 17 16 16 16 16 16 16 16 16 16 16 17 17 16 16 16 16 16 17 17 18 19 19 18 19 19 19 19 20 20 20 20 20 21 21 20 21
16 16 16 16 16 15 15 14 14 14 14 14 13 13 13 13 13 13 13 13 13 13 13 13 13 13 13 14 14 15 15 16 17 16 16 16 17 17 17 18 17 18 19
14 14 15 15 14 14 14 13 13 13 13 13 12 12 11 11 11 10 10 10 10 10 9 9 9 9 9 10 10 11 11 11 12 11 11 12 13 13 14 14 15 15 15
12 12 12 12 12 11 11 11 11 11 10 10 9 9 9 9 8 8 7 7 7 6 6 5 5 6 6 6 7 7 8 8 8 8 9 9 9 10 11 12 12 12 12
10 10 10 10 10 9 9 9 9 9 9 8 8 8 8 8 7 6 5 3 3 3 3 3 3 3 4 4 5 5 5 5 5 5 6 6 7 7 8 8 9 9 10
8 9 8 8 8 8 8 8 8 8 7 7 6 7 7 6 5 5 4 2 1 0 1 2 2 3 3 4 4 3 3 2 2 3 3 4 4 5 5 5 6 6 7
7 7 7 7 7 7 7 7 6 6 6 6 6 5 5 5 5 4 4 3 3 3 3 4 4 5 5 6 6 5 4 3 2 1 1 1 2 2 2 3 4 5 6
6 6 6 7 7 6 7 6 6 6 6 6 6 5 5 5 6 6 7 6 6 7 7 7 7 8 8 8 8 7 6 5 4 4 3 3 3 3 3 4 3 4 5
6 6 6 6 6 6 6 6 7 7 7 6 6 6 7 7 7 8 8 8 8 9 9 10 10 10 10 9 9 8 8 8 7 6 6 6 5 5 5 5 5 5 6
5 5 6 6 7 7 7 7 8 9 9 8 8 8 8 9 10 10 10 11 11 11 12 12 12 12 11 10 10 10 10 9 9 8 8 8 8 8 8 7 7 7 7
5 5 6 6 7 7 7 8 8 9 10 10 10 10 11 11 12 12 12 12 13 13 14 14 14 14 13 13 13 12 12 11 11 11 11 10 10 10 9 9 9 9 9
6 6 7 7 8 8 8 8 9 9 10 11 11 11 12 12 12 12 12 13 14 15 15 15 14 13 13 13 13 13 13 13 13 12 11 11 11 10 10 10 10 10 11
7 7 8 8 9 9 9 9 10 11 11 12 12 12 12 12 12 12 13 14 15 15 15 14 14 14 14 14 14 13 13 12 12 12 11 11 11 11 11 11 12 12 13
8 8 8 9 9 10 10 10 11 11 12 12 12 12 12 12 12 12 13 14 14 15 15 14 14 14 14 13 13 12 12 11 10 10 11 11 11 11 12 12 13 14 14
8 9 9 10 10 11 11 11 11 11 12 12 12 12 12 12 13 13 13 14 14 14 14 14 14 13 13 12 12 11 11 11 11 11 11 11 11 12 13 14 14 15 16
8 9 10 10 10 10 11 11 11 11 12 12 12 12 12 12 13 13 13 13 13 12 12 12 12 12 11 11 11 11 11 11 11 11 12 12 12 13 14 15 16 17 19
8 8 9 9 9 9 9 10 10 10 10 11 11 11 12 12 12 12 12 12 12 12 12 11 10 10 10 10 10 10 10 11 11 12 12 13 14 14 15 17 18 19 21
7 7 7 7 7 8 8 9 9 9 9 9 10 10 10 10 11 11 11 11 11 10 10 9 9 9 8 8 8 9 10 10 11 12 13 14 15 16 17 19 21 22 23
5 5 6 6 6 7 7 7 7 8 8 8 8 8 8 9 9 8 8 8 7 7 7 7 7 7 7 8 8 9 9 10 11 13 14 15 16 18 19 21 22 24 25
4 4 4 4 5 5 5 5 6 6 6 6 6 6 6 6 6 5 5 5 4 4 5 5 5 6 7 7 8 9 10 12 13 14 16 17 19 20 22 23 25 26 27
2 2 2 2 2 3 3 3 3 3 4 4 4 4 3 3 3 2 2 2 3 3 4 5 5 6 8 9 10 11 12 14 15 16 18 19 21 22 24 25 27 28 30
1 1 1 1 1 1 1 1 1 2 1 1 1 1 1 1 1 1 2 3 4 5 6 7 8 9 10 11 12 13 14 16 17 18 20 21 23 24 26 27 29 30 32

GEFSGL_500_meanwind_150.txt.gz
Wind_Speed
25 25 25 25 24 24 24 23 24 24 24 25 24 24 23 23 24 24 24 24 25 25 25 25 25 26 26 27 27 27 27 26 26 26 25 25 25 25 25 24 24 25 25
23 24 24 23 24 24 23 23 23 23 22 22 22 22 22 22 22 22 22 22 22 23 23 23 23 24 24 24 24 24 24 24 24 23 22 22 22 22 22 22 22 22 21
23 23 24 23 23 23 23 22 21 21 21 21 21 21 21 20 20 21 20 20 19 20 20 21 21 20 20 20 21 21 21 21 21 20 20 19 19 20 20 20 19 19 18
22 23 23 22 21 21 21 20 20 20 20 20 20 19 19 19 19 18 18 17 17 17 17 16 17 17 16 17 18 18 18 18 18 18 17 17 17 17 17 17 17 17 17
20 20 20 20 20 19 19 18 19 19 19 19 18 18 17 17 17 16 15 15 15 15 15 14 14 14 14 14 15 15 15 15 14 15 14 13 13 13 13 13 14 14 15
18 18 18 18 18 17 17 17 17 17 17 17 16 16 15 15 14 13 13 13 13 13 12 11 11 11 11 11 11 12 12 12 12 11 11 10 10 10 10 10 11 11 11
16 15 16 16 15 15 15 15 15 15 15 14 14 13 13 12 11 10 10 10 10 9 9 9 9 8 8 8 7 8 8 9 8 8 8 8 8 7 8 9 10 10 10
13 13 14 14 13 12 12 12 12 12 12 12 11 11 10 9 9 8 8 8 7 7 6 6 6 6 5 5 4 4 5 5 5 5 6 6 6 7 8 9 9 10 10
11 12 11 11 11 10 11 11 11 10 10 10 10 9 8 7 7 7 6 5 5 4 4 4 3 3 2 2 2 2 3 4 4 4 4 3 3 5 6 7 8 8 8
9 9 9 9 8 9 10 10 10 9 8 9 8 8 7 7 6 6 5 5 4 4 4 3 2 0 1 2 3 3 3 3 2 2 1 1 2 3 4 5 6 7 7
7 7 6 6 7 8 8 9 9 9 8 7 7 7 6 6 6 6 5 5 4 3 3 2 2 3 3 4 5 4 3 3 2 2 1 0 1 2 3 4 4 5 6
6 5 6 7 7 8 8 8 8 9 9 8 7 7 7 7 7 6 6 5 4 4 4 4 5 6 6 6 6 5 4 3 3 2 2 1 1 2 3 3 3 4 5
4 4 5 7 7 7 7 7 7 8 8 8 8 7 7 7 7 7 7 7 7 6 7 7 7 7 7 8 8 7 6 6 5 4 3 3 4 4 4 4 4 4 5
3 5 5 6 6 7 7 7 7 7 8 8 9 9 8 7 8 8 8 8 9 9 9 10 9 10 9 9 9 9 8 7 7 7 6 6 6 6 6 6 6 6 7
4 5 5 6 7 7 7 7 7 8 8 9 9 9 9 9 8 8 8 8 9 10 10 10 10 10 10 10 8 8 8 8 8 8 8 9 9 8 8 7 7 8 8
4 5 5 6 6 6 7 7 8 8 8 9 9 10 9 9 9 9 9 9 9 9 10 10 10 10 10 9 9 8 8 7 8 8 9 9 9 8 8 8 8 9 9
4 5 5 5 6 6 6 7 7 7 8 8 9 9 9 9 9 9 9 9 9 9 9 9 9 9 9 8 8 8 8 8 8 8 9 9 9 8 8 8 9 10 11
5 6 5 5 6 6 6 7 7 7 8 8 9 9 9 9 9 9 10 9 9 9 9 9 9 8 8 7 7 7 8 8 8 7 7 8 8 9 9 10 11 12 13
6 6 6 6 6 6 6 7 7 7 7 8 8 8 9 9 9 9 9 9 9 8 9 9 8 8 8 8 7 7 7 7 6 6 7 7 8 10 10 11 12 13 14
6 6 6 6 6 6 6 7 7 7 7 7 7 7 7 7 7 7 7 7 7 7 8 8 8 8 8 8 7 6 6 6 6 6 7 9 10 11 12 13 14 15 17
5 6 6 6 6 6 6 6 6 6 6 6 6 6 6 5 5 6 6 6 6 6 6 6 6 6 6 6 6 6 6 6 7 7 9 10 11 12 14 15 16 18 19
4 5 5 5 5 5 5 5 5 5 5 5 4 5 5 5 5 5 6 5 5 5 4 4 4 4 5 5 5 6 7 8 8 9 10 12 13 14 16 17 18 19 21
4 4 4 4 4 4 3 4 4 4 3 3 3 3 3 3 3 3 3 3 3 3 3 3 4 4 5 6 7 7 9 10 10 11 13 14 15 16 18 19 20 21 22
3 3 4 4 4 3 3 3 3 3 2 2 2 2 1 1 1 1 2 2 2 3 4 5 5 6 7 8 9 10 11 12 13 14 15 17 18 19 20 21 22 24 25
4 3 4 4 4 3 3 3 3 3 3 3 3 3 3 3 3 4 4 4 5 6 7 8 8 9 10 11 12 13 14 15 16 17 18 19 20 21 22 23 25 26 27
4 4 4 5 4 4 4 4 4 4 4 4 4 5 5 6 6 7 8 8 9 9 10 11 12 13 13 14 15 16 17 18 19 20 21 22 23 24 25 26 27 28 29

GEFSGL_500_meanwind_156.txt.gz
Wind_Speed
22 22 22 23 23 24 23 23 23 21 21 20 20 20 19 19 19 19 19 19 19 19 19 19 20 20 21 22 22 22 23 24 24 24 24 24 23 23 23 23 23 23 21
20 20 21 21 22 21 21 21 20 20 20 19 19 18 18 18 18 17 17 17 17 17 18 18 18 18 18 18 19 20 20 20 21 21 21 22 21 21 21 20 20 19 19
19 19 19 19 20 19 19 19 19 19 19 18 17 17 17 17 17 16 16 15 15 15 15 16 16 17 16 16 16 16 17 17 17 18 18 19 19 18 17 16 15 15 16
17 17 18 18 17 17 17 18 18 17 17 16 17 16 15 15 15 14 13 13 13 12 13 13 14 14 14 14 14 14 15 15 15 16 17 17 16 16 15 14 13 13 14
16 16 15 15 15 15 15 16 16 16 15 14 14 13 13 12 12 12 11 11 11 10 10 10 11 11 10 10 11 11 12 12 12 13 13 14 14 14 14 13 12 12 12
15 14 14 13 13 14 14 15 15 14 13 13 12 11 11 10 9 9 9 9 8 8 9 9 9 8 8 8 8 8 9 10 10 10 11 11 11 12 11 11 11 11 11
13 12 12 12 12 12 13 13 13 12 11 10 10 9 8 7 6 6 6 6 5 5 6 6 5 5 5 5 5 6 6 7 9 9 9 9 9 10 10 10 10 10 10
11 10 11 10 10 11 11 12 11 11 10 9 8 6 6 5 4 3 4 4 4 3 4 3 2 2 2 2 3 4 4 5 7 7 7 8 8 8 8 8 8 9 10
9 9 9 9 9 9 10 10 10 10 9 8 7 6 6 5 4 4 4 4 4 4 3 2 1 1 1 1 2 3 4 4 5 5 5 5 6 7 7 7 7 8 8
7 7 7 7 7 7 8 9 9 9 8 7 7 6 6 5 5 4 4 4 4 3 3 2 1 1 1 1 2 3 3 4 4 4 3 3 4 4 5 5 5 6 6
6 6 6 6 6 6 7 7 8 8 8 8 8 7 6 5 5 5 5 4 4 4 4 3 3 3 3 4 4 4 4 4 4 3 3 3 2 1 1 2 2 3 3
4 5 5 5 6 6 7 7 7 8 8 8 8 7 6 6 5 5 5 5 5 5 5 5 5 5 5 5 5 4 5 4 4 3 3 2 1 1 1 1 1 1 1
4 5 5 5 5 6 6 7 7 8 8 8 8 8 8 8 7 7 6 6 6 6 6 6 6 7 7 7 6 6 6 5 4 4 3 2 2 2 2 2 2 1 2
4 5 5 5 5 5 6 6 7 7 8 8 9 8 8 8 8 8 8 8 7 7 8 8 8 8 7 7 7 6 6 5 4 4 3 3 3 3 3 3 3 3 3
5 5 5 5 5 5 5 6 7 7 7 8 8 8 8 7 7 8 8 8 8 8 8 8 8 8 8 8 7 7 7 6 5 5 4 4 4 4 3 3 3 3 4
5 6 5 5 5 5 6 6 6 6 6 7 7 8 8 8 8 8 8 8 8 7 7 7 7 6 6 6 6 5 5 4 4 4 4 4 4 3 3 3 4 5 6
5 5 5 5 5 5 6 6 5 5 6 6 6 7 7 8 8 7 8 7 7 7 7 6 5 5 4 4 4 4 4 3 3 3 3 3 3 4 4 4 6 7 8
6 6 5 5 5 5 6 6 5 5 5 5 6 6 6 6 6 6 6 6 6 6 6 5 5 4 3 3 3 3 3 3 3 3 3 3 3 4 5 6 7 8 9
6 6 5 5 6 5 5 6 5 5 5 5 5 5 5 5 5 5 5 5 4 4 4 4 4 3 3 2 2 2 2 3 3 3 3 4 5 6 7 8 9 11 12
6 6 6 6 6 5 6 6 5 5 5 4 4 4 4 4 4 4 3 3 3 3 3 2 2 2 2 2 3 3 3 3 3 4 5 6 7 8 9 10 11 13 14
6 6 5 6 6 5 5 5 5 4 4 4 3 3 3 3 2 2 3 2 2 1 1 2 2 3 3 4 4 4 3 4 5 6 7 9 9 10 11 12 14 15 16
6 6 5 5 5 5 5 5 4 4 4 3 3 3 3 2 2 2 2 2 2 2 3 3 4 4 5 5 5 5 6 7 8 9 10 11 12 13 14 15 16 17 18
6 6 5 5 6 5 5 5 4 4 3 3 3 3 3 2 2 3 2 3 3 4 4 5 6 6 7 7 8 9 9 10 11 12 13 14 15 16 17 18 19 20 21
6 6 5 6 6 5 5 4 4 4 3 3 3 3 4 4 4 5 5 5 6 6 7 8 9 9 9 10 11 12 13 14 15 16 17 17 18 19 20 21 22 23 24
7 7 7 7 6 6 5 5 4 4 4 5 5 5 6 6 6 7 7 8 9 10 11 11 12 12 13 14 15 16 17 17 18 19 20 20 21 22 23 24 25 25 26
7 7 8 8 8 7 7 6 6 7 7 7 7 8 9 9 9 10 11 12 12 13 14 14 15 16 17 17 18 19 20 21 21 22 22 23 24 25 26 27 27 28 29

GEFSGL_500_meanwind_162.txt.gz
Wind_Speed
21 20 19 19 20 21 22 22 22 21 21 21 22 22 22 21 21 21 20 20 20 20 20 20 21 21 22 23 24 24 24 24 24 24 25 25 26 26 26 26 26 26 25
19 19 19 19 19 20 19 19 19 19 20 20 20 20 20 20 19 19 18 18 18 18 17 17 18 18 19 19 20 21 21 21 22 21 22 22 24 24 24 24 23 23 22
18 17 17 17 17 17 17 18 18 18 18 18 19 19 18 17 17 17 17 16 16 16 15 15 15 15 16 17 17 18 19 19 19 20 20 20 21 22 21 21 20 19 19
16 15 15 15 15 16 16 16 17 17 16 16 15 15 15 14 14 14 14 15 15 14 14 13 14 13 13 14 15 15 15 16 16 18 18 18 18 17 17 17 17 17 16
14 14 14 14 15 15 15 15 16 15 15 15 14 13 13 13 13 13 13 13 13 13 12 12 13 12 12 12 12 13 13 13 14 16 16 16 15 15 15 15 16 15 15
12 13 13 14 14 14 14 14 14 14 14 13 12 12 12 12 12 11 11 11 10 10 10 11 11 11 11 10 10 11 11 12 12 13 13 13 14 13 14 14 14 14 14
11 12 12 12 12 13 13 13 13 12 12 11 11 11 11 11 10 10 9 9 8 8 8 8 9 9 8 8 8 8 8 9 9 9 10 11 12 12 13 13 13 13 13
10 11 11 11 12 12 13 13 12 11 10 10 10 11 10 10 9 9 8 6 6 6 5 5 6 6 5 5 5 5 5 5 6 7 9 10 10 11 11 12 12 12 12
8 9 9 10 10 11 11 11 10 9 9 9 9 10 9 9 8 8 7 6 5 4 3 3 3 3 3 2 2 2 3 3 4 5 6 7 8 8 9 10 11 11 11
7 8 8 9 9 10 10 10 9 9 9 9 9 9 9 8 8 7 7 5 5 4 4 4 3 1 1 1 1 0 0 1 2 2 3 4 5 6 7 8 9 10 10
6 7 7 7 8 8 8 9 8 8 8 8 8 8 8 7 7 7 6 5 4 4 4 4 3 3 3 2 2 1 1 0 0 1 2 2 3 4 5 6 7 7 8
5 5 6 6 7 8 8 8 8 7 8 8 8 7 7 7 7 7 6 5 4 4 4 4 3 4 4 3 2 2 1 1 1 0 0 1 2 3 3 4 4 5 5
4 5 5 6 6 7 7 8 8 8 8 8 8 7 7 6 7 7 7 6 5 5 4 3 3 3 3 3 3 2 2 2 1 1 1 0 1 1 2 3 3 3 3
5 5 6 6 6 7 7 8 8 8 8 8 7 7 7 7 6 6 7 7 6 6 5 4 4 3 3 4 4 3 3 3 2 1 1 1 1 2 2 2 2 3 4
5 6 6 6 6 7 7 8 8 8 9 8 8 7 7 7 7 7 6 6 6 6 6 5 4 4 3 3 3 3 3 3 2 2 2 1 2 2 2 3 4 4 5
5 6 6 6 6 6 6 7 8 8 8 8 8 8 7 6 7 7 6 6 6 6 5 4 4 3 3 2 2 3 3 3 2 2 2 3 3 4 5 5 6 6 7
6 6 6 6 6 6 6 7 8 8 8 8 8 8 7 7 7 7 6 6 6 6 5 5 4 4 3 2 2 3 3 3 3 3 4 5 6 6 7 7 7 8 9
6 6 6 7 7 7 7 7 8 8 8 8 8 8 7 7 6 6 5 5 5 6 6 5 4 4 4 3 3 3 4 4 5 6 7 8 8 9 9 9 9 10 11
6 7 7 7 8 7 7 8 8 8 8 8 8 8 8 8 7 6 6 6 6 6 5 5 4 4 5 5 5 5 5 6 7 8 8 9 9 10 10 10 11 12 13
7 7 7 8 8 8 8 8 8 8 8 8 8 8 8 7 7 7 7 7 6 6 6 6 6 6 6 6 7 7 8 8 9 10 10 10 11 11 12 12 14 15 16
8 8 8 8 8 8 8 8 8 8 8 8 8 8 7 7 7 7 7 7 7 7 7 7 7 7 8 8 9 10 10 11 11 12 12 12 13 13 14 16 16 17 18
8 8 8 8 8 8 9 9 8 8 8 8 8 8 8 8 8 7 7 8 8 8 9 9 9 10 10 11 11 12 12 13 14 14 14 15 16 17 18 18 19 19 20
9 9 9 9 9 9 9 9 9 9 8 8 8 8 9 9 9 9 10 10 10 10 11 11 12 12 13 14 14 14 15 15 16 17 18 19 19 20 20 20 21 21 22
9 9 9 9 10 10 10 10 10 10 10 10 10 11 11 11 11 12 12 13 13 13 14 14 14 14 15 16 16 17 17 18 19 19 20 21 22 23 23 24 24 25 25
9 9 10 10 11 11 11 11 11 11 11 12 12 13 13 14 14 15 15 16 16 17 17 17 17 18 18 18 19 20 20 21 22 23 23 24 25 25 26 27 27 28 28
10 10 11 11 12 12 12 12 13 13 13 14 14 15 15 16 16 17 18 18 18 19 20 20 21 21 21 22 22 23 23 24 25 26 26 27 28 28 29 30 30 30 31

GEFSGL_500_meanwind_168.txt.gz
Wind_Speed
25 23 23 22 22 22 22 22 22 21 20 20 20 19 19 19 19 19 19 20 20 19 19 19 19 20 21 21 22 22 23 24 24 24 25 26 27 28 28 28 28 27 27
23 21 21 21 21 20 20 19 19 19 19 19 18 17 17 17 17 17 17 17 17 16 16 16 16 17 18 19 20 21 21 21 22 22 22 23 24 25 25 26 26 26 26
21 19 20 19 18 18 18 18 18 18 18 17 16 16 16 16 16 15 14 15 15 14 13 13 14 15 16 17 17 18 18 19 19 19 20 21 21 22 22 22 22 23 24
18 17 16 16 15 16 16 16 16 16 16 15 15 16 15 14 14 14 14 14 13 13 13 13 14 13 14 15 14 14 15 16 16 17 17 18 19 19 18 18 19 20 21
15 14 14 14 14 14 14 14 14 14 14 14 14 14 13 13 13 13 13 12 11 11 12 12 12 12 12 12 12 12 13 13 13 14 14 15 17 17 17 17 17 18 18
12 12 12 12 12 12 12 13 12 12 12 12 12 12 11 11 12 11 10 10 10 10 9 9 9 9 10 10 10 10 10 11 11 11 11 12 13 14 14 15 16 16 16
11 11 11 11 10 11 11 11 11 11 11 11 11 11 10 10 10 10 9 9 8 7 6 6 6 6 6 6 6 7 7 7 8 10 9 9 9 11 11 12 12 14 15
10 10 10 10 10 10 10 10 10 10 10 10 9 10 10 10 9 9 9 8 6 5 5 5 4 4 3 3 3 4 4 4 5 6 8 8 8 8 9 10 11 11 13
9 9 9 9 9 9 9 10 10 10 9 9 9 9 9 9 9 8 8 7 6 5 5 4 3 2 2 2 2 2 3 3 3 3 4 5 5 7 8 9 9 10 11
8 8 7 7 8 9 9 9 9 9 9 8 8 8 8 7 7 7 7 7 5 5 5 4 3 2 2 2 2 2 2 2 2 2 3 4 4 5 6 7 8 9 10
6 7 7 7 8 9 9 9 9 9 8 8 8 8 7 7 7 7 7 6 5 5 5 4 3 2 3 2 2 1 1 2 2 3 3 4 4 5 6 7 8 8 9
6 7 7 7 7 8 8 8 8 8 9 8 8 8 8 7 7 7 6 5 5 5 5 4 4 3 3 2 1 1 2 2 3 3 4 5 5 6 6 7 8 9 9
5 6 6 6 6 7 7 8 8 8 9 9 9 8 8 8 7 7 6 5 4 4 4 4 5 4 3 2 2 1 2 2 3 4 5 6 6 7 7 8 8 8 9
4 5 5 6 6 6 6 7 8 8 9 9 9 9 8 8 8 7 6 5 4 4 4 4 4 4 4 3 3 2 3 3 3 3 4 5 6 6 6 6 7 8 9
4 4 5 5 5 5 6 7 8 9 9 9 9 8 8 8 8 7 6 5 5 4 4 4 4 4 4 4 4 4 4 4 4 4 5 5 4 5 6 6 7 8 9
4 5 5 5 5 5 5 6 7 8 8 8 8 8 8 8 8 7 7 6 5 5 5 4 4 4 4 4 5 5 5 5 5 5 6 6 6 6 7 8 9 9 10
5 5 6 6 5 6 6 6 7 8 8 8 8 8 8 7 7 7 6 6 6 5 5 5 5 5 5 5 6 6 6 7 7 7 7 7 8 8 9 10 10 11 12
5 5 6 6 6 6 6 7 7 7 8 8 8 8 8 8 7 8 7 7 7 6 6 6 5 5 5 6 6 7 7 8 8 9 9 9 10 10 11 12 13 13 14
6 6 5 6 7 7 7 7 8 8 8 8 9 9 9 8 8 8 8 7 7 7 7 7 7 7 7 7 8 8 8 8 9 10 11 11 12 13 13 14 15 15 16
6 7 7 7 7 8 8 8 8 8 9 9 9 10 10 9 9 9 8 8 8 8 8 9 9 9 9 9 9 10 10 11 11 12 12 13 14 15 15 16 17 18 18
7 7 7 8 8 8 8 8 9 9 10 10 10 11 11 10 10 10 10 10 10 10 11 12 12 12 12 12 12 12 13 13 14 15 15 16 17 18 18 19 20 20 21
7 7 8 8 8 8 8 9 10 10 11 11 11 11 12 12 12 12 12 12 12 12 13 14 14 15 15 15 15 15 16 17 17 18 18 19 19 19 20 20 21 22 23
7 8 8 8 9 9 9 10 11 11 12 12 13 13 13 13 13 13 13 13 13 14 14 15 16 16 17 17 17 18 19 19 20 20 21 21 21 22 22 22 23 24 25
8 8 8 9 10 10 11 12 12 13 13 13 14 14 14 14 14 14 14 15 16 17 17 17 18 19 19 20 20 21 21 22 23 23 24 24 24 24 25 25 26 27 27
8 9 9 10 11 12 12 13 13 14 14 14 14 15 15 15 15 16 17 17 18 18 19 19 20 20 21 21 22 23 23 24 25 25 26 26 27 28 28 28 29 29 30
9 10 11 12 12 13 14 14 15 15 15 16 16 16 17 17 18 19 19 20 20 20 21 21 22 23 23 24 24 25 25 26 27 27 27 28 28 30 31 31 32 33 33

GEFSGL_500_meanwind_174.txt.gz
Wind_Speed
27 27 27 27 27 27 26 26 25 25 24 23 23 22 21 19 19 18 17 17 17 17 17 17 18 18 18 19 19 19 19 19 20 19 19 20 20 20 21 21 21 22 23
26 26 25 25 25 24 24 23 22 21 21 20 19 19 18 17 17 17 17 16 16 17 17 17 17 16 16 16 16 15 16 17 17 16 16 17 18 18 19 20 20 21 22
23 23 22 22 22 22 22 20 19 19 19 18 17 16 16 15 16 16 15 15 15 15 15 15 14 14 14 14 13 12 13 14 15 16 16 16 17 17 18 17 18 19 21
20 20 20 20 20 20 19 18 17 17 16 16 15 14 14 15 15 15 15 15 15 14 14 13 13 13 13 12 11 11 11 12 12 14 15 16 16 16 16 16 16 17 18
17 17 17 17 17 17 16 16 15 14 14 14 13 13 14 14 15 15 15 14 14 13 13 12 12 12 12 11 10 11 11 10 11 12 12 14 14 14 14 14 15 15 16
15 15 15 15 15 14 14 13 13 13 13 13 12 13 13 14 15 15 15 13 13 12 11 11 10 10 10 11 10 9 9 9 9 9 9 10 10 11 12 12 12 12 13
13 13 13 14 13 13 12 12 13 13 13 12 12 12 13 14 14 14 13 13 12 11 10 9 10 10 10 9 9 8 8 8 7 6 6 7 9 9 9 10 11 12 12
12 12 13 13 12 12 13 13 13 13 13 13 12 12 13 14 13 13 13 12 11 10 9 9 9 8 8 8 8 8 8 7 6 5 5 6 7 7 7 8 9 9 10
12 12 12 12 12 13 13 13 12 13 12 11 11 12 13 13 13 13 12 12 11 10 8 8 8 8 8 8 7 7 6 6 5 5 4 4 5 5 6 8 8 9 9
11 11 11 11 12 12 12 12 12 13 12 12 13 13 13 12 13 13 12 11 10 9 9 8 8 7 7 7 8 7 6 6 6 5 5 5 5 6 7 8 8 9 10
10 11 11 11 11 11 11 11 12 12 12 12 13 13 14 13 13 13 12 11 10 9 8 8 8 8 8 8 8 7 8 7 7 7 7 7 7 7 7 8 9 10 11
10 9 10 10 11 11 11 11 12 12 11 11 12 13 13 13 13 11 11 10 10 10 9 8 8 8 8 8 8 8 8 8 8 8 9 8 8 8 9 9 9 10 10
9 9 9 10 10 10 10 11 11 11 11 11 12 12 12 12 12 11 10 10 10 10 9 8 8 8 8 8 8 8 8 8 7 8 8 8 9 9 10 10 10 10 10
8 8 9 9 9 10 10 10 11 11 11 12 12 12 12 12 12 11 11 11 10 10 10 9 9 9 9 9 8 8 8 8 8 8 8 9 9 9 9 9 10 11 11
7 7 8 9 9 9 10 10 10 11 11 12 12 12 12 12 12 12 12 11 11 11 10 10 11 10 9 8 8 8 8 7 8 8 9 9 9 10 11 11 12 13 14
7 7 8 9 9 10 10 10 10 11 11 12 12 12 12 12 12 12 12 12 11 11 11 11 11 10 10 8 8 8 8 8 9 9 9 10 11 11 12 13 14 14 15
8 8 8 9 9 10 10 10 11 11 11 12 12 13 13 13 13 13 13 12 12 12 12 11 11 11 10 9 9 9 9 10 11 11 11 11 13 13 14 14 14 15 16
8 8 9 9 10 10 10 10 11 11 12 12 13 13 13 14 14 14 13 13 13 12 12 12 12 12 11 11 11 11 11 12 12 13 13 14 14 15 15 15 16 16 17
8 8 9 10 10 10 10 11 11 12 13 13 13 14 14 14 15 15 15 14 13 13 13 13 13 14 13 13 13 14 14 14 14 15 15 15 16 17 17 18 19 19 19
8 8 9 10 10 10 10 11 12 13 14 14 15 15 15 15 16 16 15 15 14 14 14 14 15 15 16 16 16 16 16 17 17 17 18 18 19 19 20 20 21 21 21
8 9 10 10 11 11 12 13 13 14 15 15 16 16 16 16 16 16 16 15 15 15 16 16 17 17 18 18 18 19 19 20 20 20 21 22 23 23 22 23 23 23 23
8 9 10 10 11 12 13 14 15 15 16 16 17 17 17 17 18 18 17 17 17 17 18 18 19 20 20 20 21 21 21 22 22 23 23 24 25 25 26 26 26 26 26
9 9 10 11 12 13 14 15 16 16 16 17 17 18 18 18 18 19 19 19 19 19 20 21 22 22 22 23 23 24 24 24 24 24 25 25 26 26 26 26 27 27 27
9 10 11 12 13 14 15 16 16 16 17 17 18 19 19 20 20 20 20 21 21 22 23 22 22 23 24 25 25 25 25 25 26 27 27 27 27 27 28 28 28 28 28
10 11 12 13 14 15 16 16 17 18 19 19 20 21 21 22 22 22 22 23 23 24 24 24 24 24 26 26 27 27 27 28 28 28 28 29 29 29 29 29 30 30 30
11 12 13 14 15 16 17 17 18 19 20 21 22 23 23 23 24 25 25 26 27 27 26 26 26 27 28 28 28 28 28 28 29 30 30 31 31 31 31 31 31 32 32

GEFSGL_500_meanwind_180.txt.gz
Wind_Speed
21 22 23 24 23 23 23 22 21 20 20 20 19 19 19 19 19 18 18 16 16 15 15 15 14 14 14 14 14 14 15 16 16 16 17 18 19 20 22 22 23 25 26
20 21 22 22 22 21 21 20 19 19 19 19 18 17 17 17 17 17 16 15 14 14 13 13 12 12 12 13 13 14 14 14 14 15 15 16 17 18 18 20 21 22 22
19 20 20 20 19 19 18 18 17 17 17 17 17 17 17 16 16 15 14 13 13 13 13 12 12 12 12 12 12 13 13 13 13 13 14 14 15 15 16 18 18 19 20
18 18 18 18 17 17 17 16 16 15 15 15 15 16 16 14 14 14 13 12 12 13 12 12 11 11 11 11 11 11 12 12 12 12 13 13 13 14 15 17 18 19 20
17 16 16 16 16 16 16 15 15 14 15 15 15 15 14 13 13 12 12 12 12 12 11 11 11 10 11 11 10 10 10 10 10 11 11 11 12 13 14 15 16 17 18
15 15 14 14 15 15 14 14 14 13 13 14 14 14 13 13 13 12 12 12 12 11 11 10 10 10 10 10 10 10 11 11 11 11 11 10 10 10 11 14 15 16 17
14 14 14 13 14 14 13 13 13 12 12 12 12 12 12 12 12 12 11 11 11 11 11 10 11 10 10 10 10 10 11 11 11 11 11 11 10 10 10 12 13 15 16
14 13 13 13 13 12 12 12 12 12 12 12 12 11 11 12 12 12 11 10 10 10 10 10 10 10 10 9 10 11 11 11 10 10 10 11 10 10 10 11 12 13 14
13 12 12 12 12 12 12 12 12 12 12 12 11 11 12 12 11 11 11 10 9 9 9 9 9 10 10 10 10 10 10 10 10 10 10 10 11 11 11 11 11 12 13
12 12 12 11 11 12 12 12 12 11 11 12 11 11 11 12 12 11 10 9 8 8 8 9 9 8 8 8 8 9 9 9 10 10 10 11 11 10 11 10 11 11 12
11 11 11 11 11 11 12 11 11 11 11 12 12 12 12 12 12 12 11 9 8 8 8 8 8 8 7 7 7 8 8 8 9 10 11 11 11 11 11 12 11 12 13
10 10 10 10 10 11 11 11 11 11 11 11 11 11 12 12 11 11 11 10 9 8 8 8 8 8 8 8 8 8 8 8 9 9 9 10 10 11 11 12 12 12 13
9 9 9 9 9 10 10 10 10 10 10 10 10 11 11 11 11 11 11 11 10 9 8 8 8 8 8 9 9 9 9 10 10 10 10 10 10 11 12 13 13 12 12
7 7 8 8 8 9 10 10 10 10 11 11 10 10 11 11 11 11 11 11 10 10 9 9 9 9 9 9 10 10 10 11 11 11 11 11 12 12 13 13 13 14 14
6 7 7 7 8 9 9 10 10 10 11 10 11 11 11 11 12 12 12 11 11 11 11 10 10 10 10 10 10 10 11 11 10 11 11 12 13 13 14 14 15 15 16
5 6 7 7 8 9 9 10 11 11 11 11 11 12 12 12 12 12 12 12 12 12 12 11 12 11 11 11 11 11 12 11 11 11 12 13 14 14 15 16 16 17 18
5 6 7 7 8 9 10 10 10 11 11 12 12 12 12 13 13 13 12 12 13 13 13 13 13 12 12 13 13 12 12 12 12 13 13 14 14 15 16 17 17 17 18
6 7 7 8 9 9 10 10 10 11 12 12 13 13 13 14 14 14 13 14 14 14 14 14 14 14 14 14 14 14 14 14 14 14 15 15 16 17 18 18 18 19 20
6 7 8 8 9 10 10 10 10 11 12 13 13 14 14 15 15 15 15 15 15 15 15 15 15 15 16 16 17 17 17 16 17 18 17 18 18 19 20 21 21 22 23
7 8 8 9 10 10 10 11 11 12 13 13 14 14 14 15 15 16 16 16 16 16 16 16 16 17 17 17 18 18 18 19 20 20 20 20 21 22 22 23 23 24 24
7 8 9 10 10 10 11 12 12 13 14 14 15 15 16 16 17 17 17 17 17 18 18 18 19 19 20 20 20 20 20 21 21 21 22 22 23 23 24 24 24 25 25
6 7 9 9 10 11 11 12 13 13 14 15 16 17 17 18 18 19 19 19 19 19 20 20 21 21 22 22 22 22 21 22 22 23 24 24 24 24 25 25 26 26 26
6 7 9 9 10 11 12 12 13 14 15 16 17 17 18 18 19 20 20 20 21 21 21 22 22 22 22 23 23 23 23 23 24 25 25 26 26 26 26 27 27 27 27
6 8 9 10 11 11 12 13 14 16 17 17 17 18 18 19 20 21 21 21 22 22 23 23 23 23 23 24 24 24 25 25 25 26 26 26 27 27 27 27 27 27 27
7 8 9 10 11 12 13 14 15 16 17 18 18 19 20 21 22 22 23 23 23 24 24 24 24 24 25 25 25 26 26 26 27 27 27 27 27 27 27 28 28 28 29
8 9 9 10 11 12 14 15 16 18 19 19 20 20 21 22 23 24 24 25 25 25 25 26 26 26 27 27 27 28 28 28 29 29 28 28 27 28 28 29 29 29 29